GFSSGP_sfc_temp_051.txt.gz
Temp
70 72 74 74 64 61 57 59 62 64 66 67 69 69 67 64 63 60 70 71 75 74 77 78 73 73 73 74 74 74 74 74 74 74 74 74 75 75 75 75 75 76 77 77 77 76 76 75 73
72 74 73 67 60 55 59 60 62 64 65 67 66 64 63 60 68 67 67 72 74 76 78 78 72 73 73 73 73 74 75 74 74 74 74 75 75 75 75 75 75 75 76 77 77 76 74 73 72
74 73 70 64 56 56 58 61 64 64 66 66 64 66 64 61 67 69 73 74 75 75 77 77 72 73 73 73 73 74 73 73 73 74 75 75 75 75 75 74 74 75 76 76 76 74 73 71 70
73 73 66 60 55 58 60 64 63 63 66 68 66 61 66 68 66 70 74 75 74 72 74 72 71 72 73 73 73 73 73 73 73 74 74 75 75 75 74 73 74 75 75 75 74 73 71 70 69
69 67 59 54 55 60 64 65 64 63 64 64 66 59 62 69 69 70 70 73 70 71 72 72 69 70 72 73 73 72 72 72 73 73 74 74 74 74 73 73 73 73 73 73 73 72 70 69 69
67 64 56 53 56 62 65 65 65 63 64 64 63 63 62 69 65 65 67 66 68 67 69 69 70 71 72 72 71 71 71 72 72 73 73 73 72 72 72 72 72 72 72 71 71 70 69 69 68
64 61 55 54 56 59 63 65 63 64 64 63 67 61 61 64 63 64 64 63 64 64 64 68 68 69 69 69 69 70 70 71 71 71 71 71 70 71 71 71 71 71 71 71 70 69 68 68 67
65 63 54 56 57 59 65 65 65 64 60 66 66 58 58 61 63 64 63 61 61 63 62 62 64 65 67 69 68 68 69 69 69 69 69 68 69 70 70 70 71 71 70 70 69 68 67 66 66
65 60 55 57 57 62 64 64 64 65 63 62 63 63 63 62 62 61 59 59 60 59 62 62 62 65 67 66 69 69 69 68 68 69 68 68 74 74 74 70 69 69 69 68 68 67 65 65 64
65 58 58 64 64 63 63 63 63 63 59 59 60 61 61 62 61 59 57 56 58 58 58 59 61 64 66 67 69 68 69 71 71 70 68 68 70 72 73 70 68 68 67 67 66 65 65 68 70
60 60 64 66 67 65 63 62 64 62 60 62 59 59 59 60 60 59 58 57 56 59 60 61 62 63 64 66 64 65 69 71 69 68 69 68 71 71 71 71 71 70 67 69 69 68 68 65 68
60 64 66 66 64 63 61 64 62 64 63 66 64 62 61 60 60 60 59 59 59 60 60 60 62 62 64 64 65 67 68 68 67 70 69 67 69 68 68 70 68 68 68 65 64 66 64 65 65
61 64 64 66 63 63 64 62 62 60 62 65 64 63 61 62 62 62 62 60 59 59 60 60 61 62 67 66 66 66 65 68 70 70 70 70 69 66 66 66 65 65 66 67 66 66 66 65 64
65 62 62 63 63 63 62 61 63 57 63 61 61 61 63 63 61 62 61 61 62 62 64 65 64 67 68 68 66 67 68 68 69 69 69 68 66 65 66 65 65 66 67 67 67 66 66 65 65
66 61 63 63 64 63 66 60 60 59 62 60 61 61 62 62 62 62 64 64 65 66 67 66 67 68 67 67 68 69 69 68 67 66 65 66 66 64 65 65 66 66 65 64 64 62 64 64 64
61 60 56 63 64 63 64 57 59 60 60 59 60 60 60 62 62 64 65 65 66 67 67 67 69 67 66 67 68 68 66 67 65 65 66 67 66 65 64 65 65 62 58 60 59 63 63 63 64
57 54 54 58 64 62 60 58 61 61 60 59 58 59 60 62 63 64 66 66 66 67 67 67 68 67 66 66 66 66 68 67 68 65 64 64 65 64 64 65 62 58 59 60 63 62 63 62 62
52 54 56 56 61 61 59 60 59 60 60 60 60 59 60 60 63 66 66 67 69 68 68 68 68 67 66 66 66 66 65 66 66 64 65 65 66 64 65 64 61 61 63 62 62 61 61 61 61
56 55 55 57 62 60 58 59 61 60 60 59 59 60 61 62 66 67 67 67 67 67 67 68 67 66 66 66 63 64 62 63 62 62 63 64 66 65 64 64 62 63 62 61 60 59 59 59 59
56 54 54 58 61 59 58 59 60 59 60 61 61 61 62 64 65 66 66 67 66 67 67 68 68 68 67 68 66 67 64 63 64 62 62 63 64 64 63 63 62 62 62 59 59 59 59 59 58
56 54 54 55 59 59 58 57 57 59 61 62 64 65 65 64 64 65 65 65 67 66 66 68 69 68 68 68 67 64 63 62 60 60 61 62 63 62 63 62 62 61 61 60 59 59 59 57 56
52 58 57 56 55 51 57 47 54 57 57 59 63 63 64 65 65 67 66 66 66 67 68 68 68 67 67 66 66 64 64 63 62 61 62 63 62 59 59 62 61 60 60 58 59 59 57 55 55
56 59 57 56 53 52 51 50 56 55 55 59 61 64 66 67 67 67 67 69 69 68 65 66 67 66 66 65 66 64 63 65 60 59 60 61 59 57 59 60 59 59 60 58 57 55 55 55 54
60 57 53 52 51 43 50 50 52 57 60 61 65 66 66 67 67 69 71 70 69 67 65 65 66 66 66 65 65 63 62 61 60 60 60 60 60 60 59 59 59 58 57 56 51 47 50 50 47
58 53 44 42 41 41 49 47 53 60 63 63 63 65 67 67 68 67 68 68 68 65 64 64 66 66 65 64 63 62 62 62 58 60 59 55 57 58 57 57 55 53 51 49 46 53 50 47 53
54 54 44 36 37 43 48 45 57 62 64 63 62 62 64 65 66 67 68 69 68 66 65 65 66 66 65 64 63 62 63 62 62 59 58 57 57 57 56 56 51 50 50 52 50 50 49 49 50
53 50 54 42 39 40 47 52 61 61 62 62 62 62 63 63 65 67 68 67 67 66 64 65 66 66 64 64 64 63 63 62 61 59 58 56 53 54 52 52 52 50 50 50 47 46 50 48 48
56 58 47 45 37 35 43 45 52 58 59 61 61 63 64 63 62 64 64 65 66 67 66 65 66 66 66 65 65 64 63 62 62 58 55 53 54 51 51 53 51 50 49 48 47 48 48 48 50
52 51 48 50 45 40 37 46 56 59 61 60 61 63 63 63 62 62 64 65 66 66 65 65 66 67 66 66 65 62 60 59 58 55 54 52 51 50 51 50 50 47 45 46 47 46 47 49 50
56 53 52 44 42 41 40 44 60 59 60 60 62 63 64 63 63 62 63 63 64 64 65 66 66 65 65 64 60 59 57 55 54 53 52 51 50 51 50 48 47 47 47 47 45 47 51 50 48

GFSSGP_sfc_temp_054.txt.gz
Temp
75 87 91 86 71 72 67 69 76 73 74 77 78 76 73 71 71 62 78 83 80 83 81 81 73 73 74 74 74 74 74 75 74 74 74 75 75 75 75 75 76 76 77 77 76 76 75 74 73
88 85 87 84 67 63 67 74 72 74 75 76 75 73 75 68 74 74 72 76 82 82 82 84 72 73 73 73 74 74 75 74 74 75 75 75 75 75 75 75 75 76 77 77 76 76 74 73 72
85 85 80 75 69 64 67 72 74 74 74 76 74 77 73 68 74 74 79 81 79 79 82 81 72 72 73 73 73 74 74 73 74 74 75 75 75 75 75 74 75 76 76 76 75 74 73 71 70
86 85 81 68 65 70 70 75 75 72 75 77 77 71 75 76 71 74 81 80 76 78 78 71 71 71 73 73 73 73 73 73 73 74 75 75 75 75 74 74 74 75 75 75 74 73 71 70 69
88 82 70 66 66 71 75 76 75 72 73 74 76 70 71 73 70 72 77 78 75 77 74 73 69 70 72 73 73 73 73 73 73 74 74 74 74 74 73 73 73 74 74 74 73 71 70 69 69
78 79 66 64 66 72 75 77 74 72 74 73 74 74 71 71 71 66 67 68 73 71 72 72 70 70 71 72 72 71 72 72 73 73 73 73 73 72 72 72 72 72 72 71 71 70 70 69 68
74 72 66 66 66 68 71 76 73 73 73 73 77 72 68 65 65 64 64 65 64 65 67 68 71 71 69 69 69 70 71 71 71 71 71 71 71 71 71 71 71 71 71 70 70 69 68 68 67
79 75 65 68 66 66 74 74 73 73 70 76 75 72 65 62 63 64 62 63 62 63 64 64 64 70 71 70 68 68 69 69 70 70 69 69 70 70 70 70 71 70 70 70 69 68 67 67 66
79 69 66 65 66 69 74 72 75 74 71 73 71 71 63 63 67 66 61 61 61 61 61 62 63 62 66 68 68 69 69 69 68 70 69 70 79 79 78 71 69 69 69 68 68 67 66 65 64
75 68 67 74 74 72 74 73 73 71 69 69 69 62 62 63 64 62 59 57 58 58 59 62 61 61 66 68 68 69 72 75 73 74 75 79 78 80 77 70 68 68 67 67 66 66 67 71 79
74 69 74 75 77 77 75 73 75 71 67 72 67 59 60 61 61 60 60 60 58 59 59 61 62 64 63 62 62 65 69 71 73 72 74 76 77 75 76 73 75 74 71 76 74 74 77 74 76
68 75 75 75 74 74 72 75 71 74 71 74 72 62 64 63 62 60 59 58 57 59 61 59 59 61 60 63 63 64 72 73 73 73 74 73 75 75 77 78 77 75 78 74 74 74 71 71 72
70 73 75 75 72 73 72 71 71 69 72 73 66 66 65 69 67 66 61 59 59 58 59 59 61 62 63 63 63 68 71 72 76 75 75 77 77 75 77 76 77 77 75 75 72 71 72 71 72
73 73 72 72 72 72 70 70 71 68 72 69 68 69 68 68 69 67 62 63 62 59 59 59 61 62 64 66 70 72 71 73 75 77 76 74 76 73 74 74 75 73 74 75 75 74 74 74 73
74 68 71 72 72 70 73 68 69 71 71 69 68 68 67 65 68 68 70 68 70 67 70 65 68 68 68 70 72 75 76 77 77 78 75 75 74 74 74 72 70 72 74 73 73 72 73 73 74
70 69 64 71 72 71 71 63 71 72 71 69 70 68 66 65 65 68 71 72 73 74 71 71 72 71 73 73 74 75 77 77 78 76 72 71 74 73 72 73 73 74 73 72 65 70 73 73 73
68 61 62 66 73 71 70 66 72 72 71 70 69 68 66 65 67 68 71 74 75 76 74 72 73 74 73 74 74 74 74 76 77 76 74 73 73 72 73 74 74 70 65 65 66 71 72 70 72
60 61 65 62 70 70 68 68 73 73 71 70 70 68 69 66 68 70 72 74 76 75 75 75 75 74 74 74 73 74 75 76 77 75 70 70 74 72 72 74 72 69 70 65 66 66 70 71 72
66 64 63 68 70 67 67 69 72 72 69 70 71 68 64 71 73 74 74 74 74 74 73 74 73 74 75 75 74 74 72 74 74 76 74 70 73 71 72 73 70 69 67 65 63 67 66 67 69
64 63 63 66 68 66 68 69 71 73 70 70 72 72 71 72 71 72 74 75 74 73 73 74 76 75 76 77 77 77 76 76 75 73 67 68 69 71 72 71 70 70 69 62 63 67 67 68 68
64 62 62 63 67 70 67 66 67 70 72 73 74 77 76 74 72 73 73 73 73 73 73 75 76 77 77 77 78 77 76 74 71 68 68 65 66 70 70 71 70 70 65 60 64 67 66 65 65
60 68 65 64 62 57 67 54 65 69 69 71 73 74 76 76 76 75 74 74 74 74 76 77 78 78 78 77 77 74 74 72 73 69 65 65 66 67 71 71 68 65 65 65 67 68 67 66 62
62 66 64 64 62 60 61 58 65 66 67 70 72 75 76 78 77 77 76 76 77 76 76 77 78 78 78 77 75 74 73 76 77 68 67 65 65 69 68 66 64 63 68 67 67 65 64 57 50
68 64 63 63 62 50 59 58 62 67 69 71 75 77 77 78 79 80 80 80 79 79 77 76 76 77 77 76 74 73 72 73 73 69 68 67 68 67 66 63 61 64 67 66 65 60 52 51 51
66 61 50 47 48 46 58 56 62 71 73 73 74 77 80 79 79 78 79 79 79 78 76 75 75 75 76 75 74 73 72 71 71 70 68 66 65 61 60 61 64 66 66 59 51 57 58 54 49
63 62 51 40 43 51 56 52 64 71 74 75 75 75 75 79 80 80 80 80 80 78 76 75 75 75 76 75 73 73 70 70 70 70 68 67 62 56 61 60 63 56 55 54 59 55 52 53 48
60 56 64 52 49 48 57 61 70 72 71 73 73 73 74 76 79 80 82 82 81 80 76 75 76 77 77 71 72 70 68 68 68 68 66 65 60 56 53 54 52 56 59 57 49 48 46 48 53
64 68 53 56 41 41 53 54 62 64 67 71 73 74 75 76 76 77 79 80 81 81 79 76 76 76 77 75 72 70 68 68 68 65 63 60 54 52 51 48 51 57 52 49 51 50 47 48 47
59 58 59 60 55 46 44 54 69 68 70 70 71 74 75 75 75 75 76 78 78 78 78 76 76 77 77 76 74 71 71 70 66 62 61 57 54 52 51 52 52 49 48 47 46 46 48 46 52
68 63 62 51 48 52 50 53 73 73 71 71 72 73 75 76 76 75 75 75 76 75 76 75 76 76 77 76 74 71 66 63 60 57 56 53 51 51 55 53 49 49 48 46 48 45 47 51 55

GFSSGP_sfc_temp_057.txt.gz
Temp
76 87 94 90 73 74 68 74 83 76 78 87 84 82 77 81 67 58 74 86 84 82 84 82 73 74 74 74 74 74 75 75 75 75 75 75 75 75 75 76 76 76 77 77 76 75 75 74 73
93 93 91 84 69 65 69 79 73 79 83 81 82 80 79 75 79 76 72 85 87 84 82 83 72 73 73 74 74 74 75 75 75 75 75 75 75 75 75 75 75 76 76 76 76 75 74 73 72
89 92 82 76 71 66 66 73 79 82 82 82 80 84 81 77 78 78 85 80 80 81 81 80 71 72 73 73 73 74 74 74 74 74 75 75 75 75 75 75 75 75 76 76 75 74 72 71 70
90 88 84 70 67 75 76 78 80 79 82 84 84 77 81 79 77 79 83 85 81 81 79 72 71 72 73 73 73 73 73 73 73 74 75 75 75 75 75 74 74 75 75 75 74 72 71 70 69
90 85 72 70 71 76 79 82 80 77 77 81 83 74 75 77 78 75 80 83 80 79 74 75 69 71 73 73 73 73 73 73 73 74 74 74 74 74 74 73 73 73 74 73 72 71 70 69 69
80 83 68 66 69 75 80 82 80 78 79 80 80 80 74 80 70 68 77 75 71 69 69 70 70 70 71 72 72 71 72 72 73 73 73 73 72 72 72 72 72 72 71 71 70 70 69 69 68
77 76 69 70 70 71 76 82 79 77 76 79 83 75 73 69 65 66 71 70 68 68 66 67 69 69 68 69 70 70 71 71 71 71 71 71 71 71 71 71 71 71 71 70 70 69 68 68 67
82 78 70 72 68 68 78 79 79 79 76 85 84 74 70 65 64 64 65 64 65 66 65 66 66 67 69 70 69 69 70 69 69 70 69 69 70 70 70 70 70 70 70 70 69 68 67 66 66
86 71 67 68 69 71 80 77 83 84 78 79 78 73 68 70 67 64 62 62 61 63 65 66 66 66 66 70 69 69 69 69 68 69 69 70 75 75 78 70 69 69 68 68 68 67 66 65 66
78 72 70 78 78 75 78 79 79 77 77 76 71 63 64 66 69 66 61 60 60 58 59 62 65 64 68 68 68 68 69 73 74 75 75 76 74 76 76 70 68 67 67 67 67 67 66 67 79
79 72 78 78 80 81 79 80 81 78 75 75 74 61 62 63 64 65 60 59 59 61 59 59 61 63 63 62 63 64 67 71 71 72 74 75 74 75 74 72 72 71 70 74 73 72 78 77 77
73 80 79 80 80 79 78 81 78 80 76 79 73 67 64 63 63 64 61 58 58 58 59 61 61 61 60 59 59 61 66 71 73 71 73 75 74 74 73 74 74 75 77 75 77 76 73 73 74
75 78 80 82 79 79 80 77 77 76 79 77 71 70 70 68 68 68 62 59 58 57 58 58 59 59 59 59 60 61 66 70 72 73 74 75 75 73 75 75 77 77 78 76 75 74 74 73 74
79 78 79 80 80 79 75 77 77 76 79 72 73 71 69 71 69 64 61 57 58 57 57 59 59 60 60 60 61 61 71 74 76 76 74 74 75 74 76 75 77 77 77 77 76 76 75 75 74
79 73 77 75 79 77 79 62 62 77 76 73 72 71 70 74 74 68 64 62 62 58 58 58 58 60 61 62 65 68 71 75 75 76 75 76 77 75 75 75 76 76 76 75 75 74 75 74 75
73 74 65 55 66 77 76 49 53 79 77 75 73 72 70 69 74 70 69 67 65 64 60 60 63 63 66 66 68 67 75 75 77 78 78 76 76 76 75 75 74 75 75 74 73 73 74 74 74
72 62 63 64 77 75 74 61 75 79 77 74 74 73 71 70 74 74 75 75 73 72 69 67 69 69 69 69 70 72 76 76 78 78 77 74 74 75 75 75 75 75 73 72 70 72 72 72 72
64 64 68 62 63 74 70 71 75 79 77 76 77 74 72 74 73 73 77 78 79 75 72 72 72 71 72 72 74 75 75 75 78 78 78 75 75 74 73 75 75 74 72 70 71 69 70 71 72
70 68 67 64 66 71 70 71 74 78 77 75 74 73 73 73 76 74 75 76 78 76 73 73 71 74 76 75 74 73 72 75 76 79 77 73 73 75 72 74 73 71 71 70 68 67 65 67 70
68 66 66 72 74 71 71 70 71 78 76 77 76 73 71 76 75 75 75 76 76 75 75 74 75 76 78 79 78 78 77 77 76 77 77 73 72 75 73 73 73 71 71 69 67 65 63 65 69
67 65 66 66 70 73 70 67 68 77 78 78 79 80 77 73 73 73 73 75 76 75 75 77 77 78 78 80 81 80 79 79 77 77 76 71 69 65 63 65 70 71 71 68 66 66 62 63 67
62 72 69 67 65 58 68 55 64 73 74 75 78 79 79 78 77 76 75 76 76 75 77 77 78 79 80 80 79 78 76 75 76 76 76 70 64 62 62 62 64 71 72 66 63 65 64 67 65
66 70 68 68 65 64 64 60 64 73 71 75 77 79 81 81 80 78 77 78 79 78 77 77 79 80 81 81 79 78 75 77 79 77 75 69 66 65 65 65 65 69 67 64 62 63 66 68 66
74 68 67 67 64 52 63 60 58 63 71 75 79 80 81 83 82 82 82 81 81 80 79 78 78 79 81 80 79 77 76 75 76 77 69 67 67 66 67 68 63 62 62 61 62 67 66 59 55
69 64 51 46 49 49 64 61 64 68 77 77 77 81 82 83 82 82 82 81 81 79 79 79 79 79 80 79 79 78 76 75 74 70 71 69 67 67 65 67 59 58 58 60 64 58 56 59 57
65 64 52 40 44 51 62 54 65 77 78 80 81 82 82 84 84 84 84 83 82 81 80 79 79 79 80 79 77 75 76 75 74 74 74 72 70 66 66 58 57 55 52 51 52 53 59 54 51
65 59 69 56 56 50 59 65 73 76 75 77 78 79 80 82 85 84 85 85 84 83 81 80 80 80 80 78 76 70 71 74 72 72 70 69 68 65 63 57 55 50 50 52 53 51 48 48 50
68 71 56 58 41 41 55 59 60 68 71 74 76 77 79 81 83 84 86 85 86 85 84 81 80 79 79 76 75 74 72 70 70 68 66 65 64 63 58 54 52 50 51 52 52 49 49 45 46
63 61 63 64 58 45 46 56 71 71 73 73 75 78 79 80 81 82 83 86 87 87 85 82 80 81 80 79 75 70 68 69 69 64 64 63 61 57 55 52 50 49 50 49 46 46 45 45 45
68 65 64 53 52 56 53 55 75 75 77 76 77 78 80 80 81 82 82 82 83 83 83 82 80 80 81 81 76 70 68 64 63 61 59 57 55 53 52 52 51 50 47 46 47 46 46 44 46

GFSSGP_sfc_temp_063.txt.gz
Temp
63 67 66 66 51 47 44 54 63 62 64 67 71 67 65 66 64 52 64 67 68 69 71 75 73 74 74 74 74 74 75 75 75 75 75 75 75 75 75 75 75 76 76 76 76 76 75 75 73
69 76 68 60 46 39 47 61 63 66 71 71 69 69 67 61 65 64 62 67 68 70 75 75 71 74 74 74 74 74 75 75 75 75 75 75 75 75 75 75 75 75 75 76 76 75 74 73 72
70 76 59 52 46 44 48 63 67 72 74 72 69 64 63 59 66 66 73 70 68 70 72 73 71 73 73 73 74 74 74 74 74 74 75 75 75 75 75 74 74 75 75 75 75 74 72 71 70
70 65 62 50 48 56 59 66 72 71 69 66 68 57 65 68 67 68 72 74 71 71 74 72 71 72 73 73 74 73 73 73 73 74 75 75 75 75 74 73 74 74 74 74 74 72 71 70 69
66 60 49 46 52 61 69 71 67 62 64 60 65 56 58 65 69 68 68 71 69 70 69 70 70 72 73 73 73 73 72 72 73 74 74 74 74 74 73 73 73 73 73 73 72 71 70 69 69
58 60 47 47 55 66 67 69 68 64 64 64 60 58 58 65 64 65 66 67 68 66 66 66 69 71 72 72 72 71 71 72 72 73 73 73 73 73 72 72 72 71 71 71 70 70 70 69 69
57 52 48 53 58 61 66 72 61 61 61 58 61 54 56 60 63 64 64 67 66 64 65 65 65 64 65 67 68 69 70 70 72 72 72 71 71 71 71 71 71 70 70 70 70 69 68 68 68
63 56 51 57 57 57 65 72 71 64 58 66 66 54 56 59 63 64 65 65 65 64 63 63 64 63 62 63 65 67 68 68 69 69 70 69 70 70 70 70 70 70 70 69 69 68 68 68 68
66 52 50 55 60 61 69 66 62 64 59 62 65 63 62 63 64 62 62 63 63 63 63 63 63 63 62 62 64 66 70 67 67 67 67 66 67 68 68 68 68 69 68 68 68 68 67 67 68
58 48 55 67 66 65 70 68 70 59 57 55 58 62 64 64 63 61 59 58 59 61 62 63 62 61 62 64 64 64 66 65 66 65 65 64 66 67 67 67 67 68 68 68 68 67 67 66 62
63 56 66 69 69 68 65 61 63 60 53 57 58 58 62 62 60 60 59 57 57 59 61 62 62 62 62 62 64 64 64 64 66 65 66 66 65 64 64 63 62 62 65 64 65 64 62 62 60
59 68 69 70 70 68 65 58 55 55 56 61 61 62 62 61 59 58 57 56 56 57 59 60 61 61 61 63 63 63 64 62 64 66 65 64 63 64 63 62 61 62 63 62 61 61 61 62 63
64 67 72 69 70 69 71 61 58 55 61 62 65 65 63 61 59 59 58 57 57 57 57 58 60 59 60 60 61 62 61 62 64 65 66 65 64 63 63 62 62 62 62 61 60 61 61 61 61
69 69 68 68 69 67 64 59 62 59 62 64 65 63 60 57 57 57 56 56 56 57 56 57 57 59 60 59 60 60 60 62 64 65 66 65 64 64 62 62 63 62 62 62 61 61 60 59 60
70 62 65 64 66 64 66 56 57 62 64 63 60 61 59 57 57 57 57 56 57 57 57 56 57 58 59 58 58 58 61 63 64 64 66 65 65 64 62 63 62 62 62 62 61 60 59 59 61
62 61 51 62 63 67 63 50 60 59 61 60 61 61 60 58 58 57 58 58 58 58 57 58 59 58 58 58 58 59 62 62 64 63 63 64 66 65 64 62 62 63 62 62 60 60 59 59 58
55 50 54 57 64 64 59 50 58 61 61 59 58 58 60 58 56 57 58 56 55 56 58 58 58 58 59 58 60 61 61 61 66 61 62 64 66 66 64 63 62 62 61 61 61 59 59 58 57
50 52 53 53 59 61 55 55 56 60 60 59 57 58 60 58 57 59 58 58 57 56 58 58 59 59 59 59 60 58 57 59 61 62 63 64 65 65 64 63 62 62 61 59 58 58 58 58 59
60 59 55 55 63 59 57 56 54 56 55 55 56 58 60 60 61 61 59 58 56 56 57 57 57 58 59 58 57 58 58 59 61 62 65 65 65 65 63 63 62 62 61 58 58 57 57 57 59
62 57 54 59 64 61 58 55 61 57 57 59 61 60 61 61 60 60 60 58 57 57 58 58 58 58 59 60 61 61 61 62 64 63 63 64 65 65 64 64 62 61 59 57 57 56 54 57 58
60 57 55 57 61 64 55 53 56 61 63 63 66 65 65 62 61 59 61 60 58 57 58 60 60 60 61 62 62 62 63 62 62 63 63 63 64 65 64 63 63 61 59 58 57 58 57 55 57
53 64 64 61 55 45 56 41 56 60 62 64 66 64 64 63 65 63 62 60 58 59 61 62 63 63 63 65 63 62 62 62 63 61 62 62 64 63 62 61 61 61 61 60 58 58 57 56 53
58 65 62 60 52 48 51 43 50 62 58 61 64 66 64 65 64 65 64 63 62 63 63 64 64 64 65 65 65 65 64 64 65 64 62 61 62 62 61 61 58 58 58 57 57 57 55 54 52
68 63 60 57 51 39 50 46 45 53 60 64 66 66 66 65 65 66 67 67 64 64 65 65 65 65 66 66 66 65 66 64 63 63 62 62 62 62 61 60 59 59 58 57 55 55 54 52 50
61 53 39 34 35 34 54 50 53 59 64 65 65 64 62 65 67 65 65 66 67 64 64 65 65 65 66 67 67 67 66 67 65 61 61 60 59 59 59 59 57 57 55 54 54 54 53 51 49
57 54 39 33 30 36 54 43 53 63 66 68 70 68 65 67 69 67 67 67 67 68 66 66 66 66 68 68 69 70 69 66 64 63 61 62 61 60 59 59 58 57 54 52 52 51 50 50 48
57 50 58 46 44 35 44 54 60 62 64 65 68 68 67 68 69 69 68 69 68 69 68 67 67 68 70 69 68 68 66 65 64 63 61 60 60 59 58 59 57 54 53 52 51 50 48 46 45
61 62 46 46 35 32 43 45 46 57 64 66 63 63 66 68 70 71 70 69 71 71 70 68 69 69 70 70 68 68 66 66 65 60 59 60 59 59 57 55 53 51 51 51 49 46 45 45 45
54 53 52 52 48 34 32 39 53 56 63 64 62 66 65 65 67 68 73 72 72 73 71 68 68 69 70 70 70 68 65 63 60 61 61 59 57 57 55 53 51 50 49 48 46 45 45 45 45
62 57 54 39 42 44 38 40 62 60 62 65 65 67 66 68 68 68 67 71 73 73 73 71 70 70 69 70 68 64 61 60 59 59 58 57 55 54 52 51 50 49 47 46 46 45 45 44 44

GFSSGP_sfc_temp_066.txt.gz
Temp
63 65 64 64 50 44 40 49 56 59 62 66 69 66 60 59 58 52 65 66 68 69 73 75 73 74 74 74 74 74 75 75 75 75 75 75 75 75 75 75 75 76 76 76 76 75 75 74 73
67 72 65 56 44 36 41 53 55 60 69 68 68 67 62 56 64 62 63 69 69 70 70 73 73 73 73 72 74 74 75 75 75 75 75 75 75 75 75 74 74 75 76 76 76 75 74 73 72
70 73 58 49 40 38 42 55 59 61 66 65 62 62 62 58 66 66 71 72 70 69 69 72 72 72 72 71 73 74 74 74 74 74 75 75 75 74 74 74 74 75 76 76 75 74 73 72 71
67 62 57 47 44 51 53 62 65 61 64 63 64 56 62 66 66 68 70 70 70 68 71 71 72 72 73 73 72 74 73 73 73 74 75 75 74 74 74 73 73 74 75 74 74 73 71 70 71
63 55 46 41 47 54 63 65 64 61 59 60 62 55 58 64 66 67 66 69 68 68 69 69 70 70 72 71 72 72 72 72 73 74 74 74 74 73 73 72 72 73 73 73 72 71 70 70 70
56 54 43 40 49 58 63 65 65 62 61 62 58 56 57 63 62 63 65 68 67 65 65 65 66 63 64 71 72 72 72 72 72 73 73 73 73 72 72 72 71 71 71 71 70 70 70 70 69
53 49 43 44 52 56 63 66 61 59 56 58 62 57 59 59 61 63 65 65 65 65 63 63 63 63 64 64 68 70 71 71 72 72 72 71 71 71 71 70 70 70 70 70 70 69 69 69 69
58 53 43 47 51 53 66 67 65 59 55 65 64 56 56 58 61 64 65 64 63 63 63 63 62 62 62 61 63 64 68 70 70 70 69 69 69 69 70 69 70 70 70 70 70 69 69 68 68
61 48 43 49 52 59 67 63 58 60 58 61 63 60 60 61 62 63 63 63 62 63 62 62 62 62 61 62 62 62 65 67 68 68 68 67 66 67 67 68 68 69 69 69 68 68 67 66 66
56 45 50 60 59 62 58 61 60 58 56 58 58 60 60 61 61 59 59 59 60 61 61 61 61 61 62 63 63 62 64 64 65 65 65 65 65 65 66 67 67 68 68 68 67 67 66 64 59
54 52 63 65 65 63 56 55 60 57 49 56 56 56 59 61 61 60 59 57 57 59 61 60 61 62 62 62 63 63 63 63 63 63 64 65 65 64 63 64 63 63 65 63 63 62 60 60 58
54 63 65 67 66 62 57 56 57 52 58 61 59 60 60 59 59 59 58 57 57 58 60 61 61 61 61 63 63 63 63 63 64 65 65 64 63 62 61 62 61 62 59 61 60 58 58 59 60
59 63 66 68 67 63 61 57 57 55 60 62 62 61 60 61 59 59 58 57 58 57 58 59 60 60 60 60 61 61 60 62 64 63 64 65 63 61 60 59 60 60 59 59 58 58 59 58 59
63 63 64 65 66 64 60 56 58 58 60 61 62 59 58 56 55 55 56 56 56 56 56 59 60 60 60 60 61 60 61 63 65 65 64 63 63 62 61 59 58 59 59 59 59 59 58 58 58
64 58 61 61 61 60 61 51 54 60 61 60 61 60 56 56 55 55 58 56 57 56 57 57 58 59 59 60 59 60 62 67 65 64 64 63 63 62 60 58 58 58 60 59 58 58 58 57 58
58 54 48 58 60 64 61 48 56 58 59 58 58 58 56 55 56 55 58 58 58 57 57 58 59 59 59 59 59 60 62 62 63 63 64 64 64 62 59 59 58 60 59 58 58 57 56 56 56
49 43 49 55 61 61 56 49 55 57 58 58 56 56 54 54 54 54 57 58 58 58 58 57 58 60 60 60 61 61 60 62 63 62 63 64 63 62 60 60 61 59 59 58 58 56 57 55 55
43 46 45 49 56 57 51 50 52 56 57 58 55 52 53 53 53 55 55 55 58 59 59 58 59 59 58 59 59 60 58 60 61 62 61 62 62 63 62 61 60 60 59 57 57 57 56 56 56
54 51 49 55 60 56 54 52 53 54 53 55 55 53 54 54 56 56 56 55 56 57 57 58 58 57 57 57 58 59 60 59 60 59 61 61 62 63 61 60 59 59 59 59 57 56 56 54 54
54 53 52 56 62 58 56 53 55 54 55 56 57 54 54 55 55 56 54 54 53 54 55 55 56 56 59 60 60 60 58 56 58 59 59 61 62 62 62 61 60 59 57 57 56 56 53 54 56
55 52 53 53 57 56 52 49 50 56 56 58 59 59 59 56 54 55 54 53 52 53 54 55 56 56 58 59 59 57 56 57 57 60 61 59 61 63 62 61 60 61 59 57 57 57 56 53 55
49 60 59 57 50 43 52 39 49 54 56 58 59 58 60 58 58 57 55 53 53 54 57 57 57 57 59 59 59 58 58 58 61 63 63 59 60 61 62 62 61 60 60 57 56 57 55 56 53
55 62 59 58 51 45 47 41 47 54 54 56 58 60 61 60 59 57 57 56 56 57 56 58 58 58 60 59 60 59 59 61 61 61 59 59 59 62 62 62 61 61 60 58 57 54 54 54 52
64 58 56 53 47 37 47 44 42 49 57 59 61 62 61 61 61 61 61 60 57 58 58 59 59 59 60 61 60 59 59 59 60 60 59 60 60 60 61 61 60 58 58 56 56 55 54 52 52
58 50 37 35 34 34 50 45 46 56 61 62 61 63 64 62 62 60 59 58 58 57 58 59 60 60 61 61 61 61 61 61 60 60 60 59 59 59 60 59 58 58 58 57 54 53 53 52 52
52 51 37 33 29 36 48 41 49 61 62 63 66 66 65 63 64 62 61 60 60 59 60 61 61 61 62 62 62 62 63 62 62 61 61 59 60 61 62 60 59 58 56 54 53 53 52 51 49
53 46 56 43 40 33 41 49 57 60 59 59 60 65 63 62 63 63 64 62 62 61 61 61 62 63 63 63 63 63 62 62 64 63 59 59 59 58 58 58 58 56 55 52 51 51 49 49 48
59 59 44 42 34 31 39 41 44 54 57 60 59 60 62 62 64 65 65 65 65 64 63 62 64 64 65 65 65 65 64 63 61 58 58 59 59 59 58 57 57 54 52 52 51 49 48 47 45
52 48 48 48 43 33 30 38 51 55 61 60 59 61 60 61 64 66 66 67 67 68 65 63 63 64 65 65 65 65 64 62 60 59 59 58 58 59 58 56 54 52 51 50 49 47 46 46 45
59 54 51 39 39 39 35 41 57 57 59 60 60 63 62 64 66 67 68 68 67 67 67 66 64 63 64 64 63 61 59 60 60 60 59 58 58 56 55 54 52 51 49 48 47 45 46 45 45

GFSSGP_sfc_temp_069.txt.gz
Temp
61 62 62 62 50 43 37 46 51 56 58 61 65 61 56 56 58 52 64 66 67 71 72 73 73 73 74 74 74 74 75 75 75 75 75 75 75 75 75 75 75 76 76 76 76 76 75 74 73
64 68 62 53 42 35 40 49 51 56 62 64 64 61 58 55 62 63 63 68 67 68 71 72 72 73 73 74 73 74 75 75 75 75 75 75 75 75 75 75 75 75 75 75 75 75 74 73 72
67 69 56 47 37 37 41 52 55 59 63 62 59 60 60 56 64 64 68 68 69 68 68 72 72 72 73 73 72 72 73 74 74 74 75 75 75 74 74 74 74 75 75 75 75 74 72 71 71
65 61 55 46 40 48 50 60 61 60 63 62 61 54 60 65 66 67 68 68 67 69 68 69 70 71 71 73 73 72 71 73 73 74 74 75 74 74 74 73 74 74 75 74 73 72 71 70 69
60 53 45 39 43 51 57 60 61 58 58 59 60 56 56 62 64 64 64 68 67 66 67 68 67 66 67 66 71 72 71 72 73 73 74 74 74 73 73 73 73 73 73 73 72 71 70 69 68
54 51 41 37 45 54 58 60 62 60 58 60 57 56 58 61 61 61 65 67 67 64 66 66 66 66 66 66 67 70 70 71 72 73 73 73 73 72 72 72 71 71 71 71 71 70 69 68 68
52 47 39 41 47 52 58 62 58 57 55 58 59 55 58 59 59 63 63 64 64 63 63 63 63 64 64 65 64 68 69 70 72 72 71 71 71 70 71 70 70 70 70 70 70 69 69 68 68
54 50 40 44 47 50 59 61 60 57 57 63 61 55 55 57 62 64 63 63 63 63 62 62 62 61 61 62 63 65 66 69 70 71 70 69 69 69 70 69 70 70 70 70 70 68 68 68 66
55 46 41 46 47 54 61 57 55 57 55 59 62 57 58 60 63 62 62 62 61 62 62 62 61 61 62 62 62 62 62 68 69 69 68 67 66 66 65 68 69 69 69 69 68 67 67 66 66
52 43 48 56 57 59 61 57 59 54 54 56 57 59 59 61 58 57 58 59 60 59 61 61 61 61 61 63 62 60 61 64 66 66 66 64 64 64 66 67 68 68 68 68 67 66 65 65 62
52 50 56 62 62 61 57 53 58 55 52 56 55 55 58 57 58 57 57 58 58 60 60 60 61 62 62 60 61 61 62 62 62 63 64 64 64 64 63 62 60 62 64 63 62 61 60 58 58
51 59 59 62 63 58 54 56 55 53 59 59 57 57 58 58 56 56 57 57 58 59 59 60 61 61 62 62 61 62 62 62 62 63 64 64 62 61 60 61 59 60 60 61 58 56 55 56 56
56 59 61 64 63 59 59 57 57 55 61 60 60 59 57 57 56 56 55 56 58 58 59 59 60 61 61 61 62 61 60 61 63 63 64 64 62 61 59 57 58 59 58 58 57 56 56 55 56
59 60 60 61 63 59 57 54 53 60 58 58 59 57 56 55 54 56 56 56 57 57 58 59 60 60 60 60 60 60 61 61 62 62 64 64 63 61 60 57 57 59 57 57 56 56 56 55 56
60 56 58 59 59 60 58 50 50 59 57 57 58 57 55 55 54 53 55 56 57 57 57 58 59 59 60 60 59 60 62 63 62 62 62 62 62 62 59 57 57 57 57 57 56 56 55 54 56
54 51 46 56 57 61 59 49 56 56 56 55 55 56 55 53 54 52 54 58 57 57 57 58 60 59 59 58 58 59 60 61 63 62 62 62 62 61 59 58 58 57 58 57 55 55 54 53 54
46 41 45 52 57 56 54 50 55 55 55 54 54 53 54 52 52 53 58 58 57 58 57 57 58 58 59 60 60 59 60 61 63 61 63 61 62 61 61 60 58 58 57 56 57 55 55 53 52
41 43 39 45 53 53 50 52 55 53 53 54 52 51 51 51 51 53 53 58 58 58 58 58 58 58 57 59 59 58 58 60 61 61 62 62 62 62 61 59 58 58 57 56 56 56 54 54 53
50 47 44 51 57 53 51 52 55 52 50 51 51 50 51 52 53 53 52 55 57 58 57 57 57 58 59 59 58 58 57 59 59 61 62 61 62 62 59 59 58 58 58 58 57 55 54 53 53
50 46 46 52 57 53 51 51 54 52 52 53 53 51 51 51 51 52 51 52 54 56 57 57 58 58 61 60 61 61 61 59 59 60 61 61 61 60 59 58 58 57 56 57 55 55 53 53 53
49 46 47 48 54 53 49 48 52 53 54 54 57 55 53 53 51 52 52 52 52 55 56 55 57 56 57 56 60 59 59 59 59 59 59 58 59 60 60 60 59 58 57 56 55 56 56 54 54
46 54 54 52 47 41 50 37 47 51 51 53 55 54 54 54 55 53 52 51 52 52 53 53 54 54 55 55 54 56 58 59 59 57 58 58 58 59 60 60 60 59 59 58 57 57 54 54 52
51 56 54 52 47 42 43 39 44 50 50 53 55 57 56 56 56 54 53 52 52 52 52 53 55 55 56 55 55 54 53 56 56 56 56 56 56 58 59 60 59 59 59 59 57 54 54 55 52
60 54 52 48 44 35 44 42 40 46 54 56 59 59 59 58 58 57 56 55 53 52 53 54 54 55 57 56 55 55 55 55 56 55 56 58 56 57 59 60 59 59 58 57 57 56 54 53 51
53 46 35 32 32 35 46 41 44 53 56 61 60 59 60 61 58 57 55 54 53 52 52 54 55 55 56 57 57 56 56 56 56 58 57 59 59 56 58 60 60 58 58 57 55 53 54 52 52
49 48 35 32 29 35 44 38 47 57 60 61 62 63 63 60 59 58 57 57 56 54 54 55 55 55 57 57 57 58 58 58 58 57 58 57 58 59 60 59 60 59 57 56 55 54 53 52 52
50 43 53 41 37 32 39 46 54 58 58 59 57 59 59 60 60 59 60 59 58 56 55 56 57 57 58 57 58 58 58 58 59 58 59 59 57 58 57 57 58 57 57 57 55 54 52 51 50
54 56 42 39 31 30 36 38 41 52 55 59 55 55 58 61 61 62 61 60 60 59 58 57 58 59 59 60 59 59 59 59 59 59 56 57 57 59 59 57 57 56 57 54 53 52 50 49 47
48 49 46 46 39 32 29 35 48 52 55 57 56 56 58 60 61 62 63 63 62 62 59 58 59 60 61 61 60 59 59 59 59 60 59 57 58 58 59 58 57 56 54 53 52 49 48 47 46
55 51 49 37 37 37 34 41 54 55 56 57 58 61 58 61 62 62 63 64 62 61 60 59 59 60 61 62 62 60 60 60 60 60 58 59 59 59 58 58 56 53 52 51 50 47 47 46 45

GFSSGP_sfc_temp_072.txt.gz
Temp
61 61 61 60 49 42 36 44 48 52 53 59 62 59 56 54 58 50 63 65 69 71 71 72 73 73 74 74 74 75 75 75 75 75 75 75 75 75 75 75 75 76 76 76 76 75 75 74 73
62 65 61 51 42 35 41 46 50 55 60 60 61 59 57 56 61 62 62 67 68 70 70 72 72 73 74 74 74 75 75 75 75 75 75 74 75 75 75 75 75 75 76 76 76 75 74 73 71
64 66 55 45 36 37 40 50 54 58 61 60 57 59 59 57 63 63 66 68 69 69 69 71 72 72 73 74 74 75 74 74 74 74 74 75 75 75 75 74 74 75 76 75 75 75 72 71 70
63 59 52 44 37 46 48 54 57 57 59 59 58 55 59 63 63 63 66 67 66 68 68 67 68 68 70 72 71 72 73 73 73 74 74 75 75 75 74 73 74 75 75 75 74 73 72 70 69
58 52 43 38 41 48 53 56 58 55 56 57 58 54 55 60 63 63 63 66 66 66 66 66 67 66 67 68 69 67 72 73 73 73 74 74 74 74 73 73 73 73 74 73 72 71 70 69 68
53 50 40 37 43 51 55 57 59 58 56 58 55 54 56 59 61 62 64 66 66 65 65 64 67 67 67 67 67 67 69 71 72 73 73 73 73 73 73 72 72 72 71 71 70 70 69 68 68
51 45 39 38 44 49 56 57 57 56 53 56 57 54 55 55 58 64 64 63 63 64 62 62 64 65 66 65 66 67 69 70 71 71 72 71 71 71 71 71 71 71 70 70 70 69 68 68 67
52 49 38 41 44 47 56 59 58 55 56 60 59 53 53 56 62 63 63 62 62 62 62 62 62 61 61 62 65 66 68 70 69 70 70 70 69 70 70 70 70 70 70 70 69 68 68 67 66
52 45 39 43 46 53 58 56 54 55 53 56 60 56 56 58 63 62 61 61 61 61 61 61 61 61 61 61 62 66 68 68 69 70 68 67 67 66 64 68 70 70 69 69 69 68 67 66 65
51 42 46 53 53 56 59 58 58 53 52 55 56 58 58 60 61 60 60 59 59 60 60 61 61 60 60 61 59 63 65 65 67 68 65 65 63 62 65 67 68 68 68 67 68 67 66 64 62
49 47 53 57 59 57 53 51 57 53 50 55 55 54 57 59 59 59 60 60 59 60 61 61 61 61 61 60 58 61 62 64 64 64 63 64 63 62 63 64 63 62 64 63 64 62 59 57 58
48 56 57 59 58 54 52 53 54 52 56 57 55 56 58 59 58 58 58 58 58 59 60 60 61 60 60 62 59 60 62 62 62 62 64 64 62 62 60 61 57 58 56 57 59 59 56 55 55
52 56 58 61 60 57 57 56 55 54 59 58 58 57 56 59 58 58 59 58 59 59 59 60 61 61 60 60 61 61 61 62 62 62 64 64 62 61 60 57 58 57 56 57 57 58 57 55 54
57 57 57 58 60 58 55 52 52 57 57 57 58 56 55 55 57 57 56 57 57 59 59 59 60 60 60 60 60 60 61 62 62 62 63 63 62 60 60 58 58 56 58 57 59 57 56 54 54
57 52 54 54 55 55 57 52 50 57 56 55 56 56 55 55 53 57 58 57 58 58 59 59 59 60 60 58 58 59 61 62 62 61 62 61 62 61 60 57 57 57 57 57 57 55 53 52 54
51 49 43 52 54 56 57 47 53 55 53 52 54 55 55 53 53 52 56 58 59 57 58 59 60 59 59 58 59 59 61 60 60 60 61 61 61 61 59 59 58 58 57 56 56 54 52 53 52
44 39 42 49 55 53 50 48 52 52 53 53 52 53 54 55 53 52 55 59 58 58 58 58 59 58 58 58 58 58 59 60 60 59 62 62 61 61 60 60 58 58 57 56 57 54 55 53 53
40 40 38 42 48 49 47 49 57 53 52 52 51 51 55 55 52 52 53 55 57 58 59 58 58 58 58 58 57 57 57 59 59 59 62 63 62 62 60 59 59 58 57 56 56 55 54 55 54
47 44 42 45 52 49 50 48 54 52 49 49 50 50 50 51 52 52 53 58 56 55 57 57 57 57 57 57 57 55 56 57 58 61 62 62 62 61 59 59 58 58 57 57 55 55 55 54 54
48 45 44 49 54 51 49 49 55 51 51 51 52 49 50 50 50 51 53 56 56 56 57 57 58 58 59 59 60 58 55 57 58 59 61 61 62 62 60 59 58 58 56 55 55 55 53 54 53
46 46 43 46 49 50 46 45 50 53 51 52 53 53 52 52 50 51 51 53 55 56 56 57 58 59 60 61 60 57 57 56 57 58 59 59 60 60 60 59 58 57 55 55 55 55 55 53 53
43 51 50 48 44 38 46 34 45 52 52 52 53 52 52 52 52 51 52 52 54 54 55 58 58 58 57 55 58 59 59 58 61 61 58 60 59 59 59 58 58 57 56 55 55 56 55 55 51
49 53 50 48 43 39 41 36 43 47 51 54 54 53 53 53 53 51 51 53 54 52 55 53 53 54 54 55 57 56 56 60 57 58 59 58 56 58 58 58 58 58 58 57 56 55 54 55 53
56 49 48 45 41 32 42 40 38 44 52 55 56 56 55 53 53 53 53 52 52 52 52 53 52 53 54 54 53 55 54 53 53 53 53 53 54 55 56 57 57 58 57 57 57 57 55 55 55
50 44 33 31 31 32 43 38 45 51 55 56 57 58 56 56 54 52 51 50 50 50 52 53 53 53 54 53 54 54 54 54 54 55 53 53 53 53 54 55 56 57 58 58 57 56 55 53 52
47 44 33 31 28 34 42 36 45 54 57 57 58 59 57 55 56 54 53 52 51 51 51 52 53 54 55 55 55 55 55 55 55 53 54 53 55 53 56 56 56 56 56 55 55 53 54 54 54
46 40 49 38 34 32 38 44 52 56 57 57 55 57 55 54 54 56 56 54 53 52 52 52 53 54 55 55 56 55 54 54 54 54 53 54 54 55 55 55 56 56 56 56 55 55 54 52 52
51 52 39 36 31 30 35 36 41 50 54 55 55 55 55 54 55 56 57 57 56 55 54 54 55 55 55 56 56 56 55 55 55 54 55 56 56 55 55 56 55 55 55 56 56 57 55 53 51
45 44 43 43 37 32 30 35 47 52 53 54 55 56 54 55 55 57 58 58 58 57 55 54 55 56 55 56 56 56 55 56 57 57 57 56 57 56 57 58 57 57 57 56 54 54 51 51 49
50 47 47 37 35 35 33 40 53 53 53 54 57 57 57 56 56 56 57 57 58 57 55 55 55 56 57 57 57 56 57 57 57 58 58 59 57 58 59 59 58 57 56 53 52 50 50 50 48

GFSSGP_sfc_temp_075.txt.gz
Temp
70 71 74 73 64 60 55 58 60 62 64 69 69 66 67 66 66 61 70 71 73 75 77 78 73 74 74 75 75 75 75 76 75 75 75 75 75 75 75 75 75 76 77 77 77 76 75 75 73
72 72 73 66 60 56 59 59 60 66 70 67 66 66 65 66 67 68 68 70 71 73 76 78 72 73 74 74 74 75 75 76 75 75 75 75 75 75 75 75 75 76 76 77 76 76 75 73 72
73 73 71 61 54 56 58 61 66 67 69 68 66 66 66 66 68 68 71 70 70 69 73 77 72 73 73 74 74 75 75 75 74 74 75 75 75 75 75 74 75 75 76 77 76 75 73 71 70
73 73 65 61 55 58 60 66 66 64 67 67 66 65 66 70 68 70 71 71 70 70 71 70 70 71 70 71 74 74 74 73 74 74 74 75 75 75 74 74 74 75 76 75 75 73 71 70 69
70 67 58 55 55 59 62 64 66 64 64 64 65 64 64 67 69 69 70 71 70 69 68 68 69 69 71 70 71 70 73 73 73 74 74 74 75 74 73 73 74 74 74 74 73 71 70 69 68
67 64 57 55 55 60 64 67 66 64 65 65 64 63 66 67 67 68 69 69 70 67 67 68 69 69 69 70 69 68 69 69 70 72 73 74 73 73 73 73 73 73 73 72 71 70 69 68 68
64 61 56 54 55 59 64 67 66 66 64 65 66 63 65 64 66 68 66 66 66 66 66 66 66 69 68 68 68 68 69 70 70 71 72 72 72 72 72 72 72 72 71 70 70 69 68 68 68
65 64 53 55 56 59 66 67 66 66 66 66 68 64 63 64 66 66 64 63 63 63 63 64 65 65 65 65 66 68 68 69 70 71 71 70 70 71 71 70 70 71 70 70 69 68 68 67 66
65 60 55 56 55 62 67 66 64 64 64 64 65 65 64 65 66 64 62 61 61 62 63 64 63 64 65 66 67 68 68 69 68 69 69 69 71 72 72 70 69 70 69 69 68 68 67 66 66
65 57 58 63 63 65 66 64 66 63 62 63 62 61 62 64 64 62 61 60 61 60 62 64 66 65 64 66 66 66 66 68 68 68 67 68 69 70 70 70 68 69 68 68 68 67 66 68 71
60 59 61 64 67 66 65 63 66 63 63 67 65 62 61 63 64 64 63 62 61 63 62 62 62 62 63 66 64 64 64 66 64 64 65 66 70 70 68 68 69 71 70 72 69 69 72 70 71
59 63 64 67 67 64 64 65 62 63 69 65 66 64 62 63 62 61 62 61 62 61 62 62 62 63 65 64 64 63 62 63 62 63 65 67 67 66 64 65 66 69 72 71 69 70 68 65 68
59 64 64 67 66 64 64 64 65 62 64 64 63 62 61 64 62 62 63 62 61 61 61 61 62 62 62 64 63 64 62 61 62 62 65 68 65 63 64 63 66 68 69 69 67 68 68 67 68
64 63 65 65 66 65 64 63 61 66 66 63 63 62 60 62 63 60 59 60 61 63 61 61 62 62 61 62 61 62 62 61 62 61 64 65 64 62 62 61 63 65 68 68 67 67 68 68 69
64 59 62 64 66 64 64 60 59 65 62 62 62 62 60 61 63 61 61 60 61 60 61 60 62 61 61 60 60 61 62 62 61 62 65 67 65 64 63 63 64 64 66 64 65 66 67 67 68
59 57 53 61 62 60 64 59 65 64 62 62 61 61 60 59 61 62 62 61 63 60 59 61 61 60 59 60 61 61 61 62 61 64 66 65 65 65 63 66 64 65 64 63 62 62 65 66 66
53 50 50 56 62 60 61 59 67 60 61 61 61 62 62 60 59 61 61 62 61 61 62 59 59 58 59 59 63 61 60 60 60 60 64 64 65 65 66 66 65 62 61 62 64 64 65 64 65
49 48 51 53 59 59 57 59 66 65 62 63 63 61 61 61 59 61 61 62 61 61 60 60 59 58 59 60 60 59 59 60 59 59 62 62 65 62 64 62 60 62 63 64 64 64 65 65 64
55 51 52 55 58 57 58 57 63 65 59 60 61 61 60 60 62 61 59 61 59 59 59 59 58 58 58 58 59 58 58 58 59 59 61 62 63 63 60 61 60 63 65 64 63 63 63 62 62
54 51 52 56 58 57 58 58 64 64 64 65 65 61 61 58 57 57 57 59 59 58 59 58 58 59 61 60 65 60 58 59 59 59 60 61 61 61 62 64 63 62 62 62 61 62 61 62 61
52 50 52 52 55 58 55 55 60 65 61 62 62 64 64 61 56 54 54 56 59 57 57 59 58 59 61 61 59 57 57 57 57 58 59 61 62 62 63 64 63 64 64 62 61 62 63 61 60
47 55 54 53 51 46 55 45 55 62 64 62 66 62 62 61 61 57 54 55 57 60 59 62 60 60 61 61 60 57 56 55 58 59 60 61 62 63 66 64 63 63 62 63 62 64 64 64 61
52 56 54 54 51 49 51 48 52 56 60 66 69 66 62 62 61 57 56 56 58 60 59 61 61 61 62 63 64 60 58 59 59 58 58 61 62 63 63 63 65 63 64 63 63 61 61 62 62
59 55 53 51 49 40 49 49 50 56 60 65 67 68 64 62 61 61 61 59 57 59 59 59 61 62 62 62 64 63 60 62 60 60 60 61 61 61 63 64 64 66 65 65 64 63 62 62 58
56 50 41 38 38 39 49 46 52 61 63 64 66 70 69 63 61 60 58 56 56 55 57 56 59 60 61 61 62 63 62 63 64 64 64 63 63 62 63 64 64 64 65 65 65 64 61 61 61
50 50 42 35 35 42 47 43 53 63 64 64 65 67 67 64 62 61 60 59 57 55 56 55 56 59 61 61 61 63 63 64 64 64 64 63 64 64 65 64 65 65 65 65 65 64 64 63 62
49 45 55 44 42 40 46 51 60 65 64 66 65 66 67 65 64 62 61 61 59 58 57 57 58 60 61 61 61 61 62 62 63 63 63 64 64 64 64 64 65 66 66 66 65 64 63 62 61
55 57 44 44 35 35 42 44 50 57 63 63 65 65 67 64 63 63 62 61 61 61 60 59 61 61 61 62 62 62 61 62 62 63 62 62 64 64 64 65 65 66 66 66 64 63 63 59 56
50 49 49 50 44 40 38 44 55 59 63 62 63 65 66 66 64 63 63 63 62 62 60 59 60 61 62 62 62 62 61 61 61 61 61 62 64 64 62 62 62 63 63 62 60 60 60 58 57
55 52 51 42 40 41 41 46 60 60 63 61 63 65 66 67 67 65 64 63 62 61 61 60 60 61 61 61 61 60 61 61 60 60 61 63 63 64 64 65 64 63 58 57 57 57 57 55 53

GFSSGP_sfc_temp_078.txt.gz
Temp
76 87 92 86 72 73 70 69 75 72 73 79 80 76 76 78 74 69 80 79 78 82 86 82 73 74 74 75 75 75 76 76 76 75 75 76 76 76 76 75 75 76 76 77 77 76 75 75 74
88 85 87 84 70 66 69 72 70 75 78 78 76 75 75 75 78 78 77 78 79 79 86 86 72 74 74 74 75 75 76 76 75 76 75 76 76 76 76 75 75 76 76 77 76 76 75 73 72
85 85 81 77 73 67 71 72 75 77 78 77 75 78 77 78 78 79 80 79 78 74 85 83 72 73 74 75 74 75 75 75 75 75 75 75 75 75 75 74 74 75 76 76 76 74 73 72 71
85 85 82 70 67 70 71 75 76 75 76 78 78 74 77 81 78 80 80 79 77 70 76 72 71 72 74 74 74 74 74 74 74 74 75 75 75 75 75 74 74 75 76 76 75 73 71 70 70
88 84 72 69 68 71 75 76 76 74 74 75 76 75 74 78 79 78 78 78 78 75 72 76 70 71 71 73 74 72 73 73 73 74 74 75 75 75 74 74 74 75 75 74 73 71 70 69 69
79 81 68 67 69 72 75 77 75 74 76 75 74 75 77 78 76 78 76 77 75 74 71 75 71 70 71 70 70 70 73 72 72 74 73 74 74 74 73 74 74 73 73 72 71 70 69 69 68
76 74 69 69 69 69 73 78 76 75 76 77 79 72 78 77 77 75 70 69 70 70 71 71 74 69 68 67 68 68 69 72 71 70 72 72 72 72 73 72 73 72 71 70 70 69 68 68 68
80 77 67 70 68 69 75 76 78 76 76 76 79 75 75 76 76 76 72 69 67 66 66 67 71 69 73 74 66 68 68 68 69 70 69 70 70 71 71 71 71 71 70 69 69 68 68 67 67
80 70 67 69 69 72 77 74 80 79 77 77 77 78 78 76 76 74 69 65 64 63 64 65 65 68 69 69 70 68 68 68 68 69 69 67 72 71 74 73 69 69 69 69 68 67 67 66 66
75 70 71 76 77 73 75 74 75 75 78 76 75 75 73 75 75 71 68 64 63 63 63 64 65 66 69 68 70 72 74 73 70 69 67 69 69 69 76 71 68 68 68 68 67 66 66 70 76
75 70 77 75 78 78 76 76 78 76 75 81 78 80 75 74 75 74 72 70 67 68 64 65 66 67 65 65 67 66 69 69 67 67 65 67 67 71 73 72 74 73 71 76 73 71 78 78 78
69 75 77 78 78 76 75 80 76 79 78 78 81 79 76 74 74 74 73 73 70 71 69 68 65 67 65 64 65 66 66 68 66 63 63 63 65 70 72 74 76 76 79 76 76 77 77 76 77
69 74 77 78 77 76 77 74 76 77 81 77 76 75 75 76 76 76 76 71 70 69 71 69 70 68 69 70 69 65 63 65 62 62 64 64 65 67 70 72 74 75 78 78 77 78 76 75 75
74 74 75 77 76 76 71 75 72 80 78 74 72 75 76 76 76 76 74 69 65 72 68 69 67 66 68 68 66 63 62 61 61 61 61 64 65 66 68 69 69 72 75 78 77 76 76 76 76
73 67 73 74 76 74 76 70 71 80 74 74 73 74 74 74 76 75 74 72 71 73 70 65 66 65 66 67 62 62 64 62 60 59 62 64 67 67 67 68 67 68 74 74 75 75 77 75 77
67 68 62 71 73 74 72 67 76 78 74 74 74 74 72 72 75 76 72 72 70 71 70 66 68 63 65 65 64 61 62 61 60 60 63 64 66 67 67 67 66 67 68 70 72 74 73 74 75
65 61 63 66 74 72 70 69 77 76 74 74 74 75 74 73 73 74 72 73 74 73 69 67 63 61 60 63 61 61 61 61 60 61 64 65 67 67 68 69 69 70 70 68 70 72 72 72 74
59 60 64 63 70 70 69 69 76 79 75 76 77 76 76 74 72 73 73 73 72 71 70 67 61 60 60 61 61 60 60 60 60 62 66 69 71 71 73 74 71 72 71 70 72 70 72 73 74
67 63 63 68 70 65 66 68 73 79 77 75 77 76 76 76 78 72 72 71 69 67 67 63 58 59 60 60 62 58 58 58 59 63 68 69 70 72 68 69 70 71 69 70 68 70 69 70 71
63 60 61 67 68 64 67 67 74 77 77 79 80 78 77 76 75 69 68 69 67 65 64 61 60 60 63 66 68 62 60 60 60 61 65 64 65 64 64 67 68 69 66 63 64 69 68 69 68
61 59 60 60 66 68 65 63 69 75 78 78 78 79 79 76 73 69 64 66 68 64 64 62 61 60 62 64 67 62 60 59 58 59 60 63 64 66 64 64 67 64 67 66 65 65 65 65 63
56 65 62 60 59 54 64 53 66 71 73 76 78 78 77 78 76 72 67 67 67 67 65 63 63 61 62 64 64 64 62 57 60 59 61 62 64 64 67 65 68 66 68 69 69 69 67 70 65
58 66 61 62 59 58 60 55 65 68 67 73 78 80 79 78 77 73 70 70 70 70 62 63 64 62 62 63 66 65 62 63 62 59 59 61 63 66 64 65 66 69 70 70 70 68 67 69 68
65 60 59 59 57 46 56 57 60 66 69 73 77 79 79 78 77 76 74 72 71 71 66 65 64 63 65 63 63 63 61 58 58 58 59 60 61 61 64 66 66 68 67 69 69 69 67 67 67
62 57 48 44 44 44 59 56 60 69 73 75 75 78 80 79 77 75 72 71 70 69 68 65 66 64 64 64 64 65 63 59 59 61 62 60 61 62 63 63 64 66 68 70 70 69 68 67 67
55 56 49 40 43 50 56 51 62 72 75 76 77 79 79 78 76 75 74 73 71 68 67 63 68 68 67 65 65 66 65 65 66 68 70 67 64 65 63 63 65 67 70 71 71 70 70 71 69
52 49 60 51 52 46 56 60 67 73 74 76 75 78 79 79 77 76 76 74 72 70 67 65 67 71 70 68 69 69 69 67 69 69 70 69 69 71 67 69 69 71 72 72 71 69 70 70 69
62 65 49 51 38 39 52 54 58 63 69 73 73 75 77 78 78 77 76 74 74 72 69 67 68 70 71 70 70 70 70 69 70 70 69 70 70 71 71 71 71 71 71 71 71 71 71 70 69
56 54 57 58 53 44 43 53 67 66 71 72 73 75 77 77 75 76 76 76 75 74 71 68 68 70 71 71 70 69 70 70 70 69 69 70 70 71 71 71 71 71 71 72 71 71 71 69 66
60 56 57 49 47 51 50 53 71 70 71 72 73 75 78 78 78 78 76 75 74 73 73 70 69 70 71 71 70 69 69 69 69 69 69 70 70 71 71 71 71 71 71 71 71 69 65 61 60

GFSSGP_sfc_temp_081.txt.gz
Temp
78 89 95 91 75 77 73 76 82 78 79 85 85 81 81 83 79 70 87 85 83 84 81 83 74 75 75 75 75 75 75 76 76 75 75 75 75 76 76 76 76 77 77 77 76 76 76 75 74
93 93 92 86 72 71 76 80 75 80 83 84 83 82 81 79 87 86 86 86 86 84 87 87 73 74 75 75 75 75 76 76 75 75 75 76 76 76 75 75 75 75 76 77 76 76 75 74 72
88 93 83 80 76 71 73 78 80 82 84 82 81 86 84 81 86 86 86 85 85 84 83 84 73 73 74 74 74 75 75 75 75 75 76 76 76 75 75 74 74 75 76 76 76 75 73 72 71
90 89 86 73 73 78 76 80 81 81 83 85 84 80 85 88 84 87 86 85 84 80 83 74 71 72 74 74 75 74 75 74 74 75 75 76 76 75 75 74 74 75 76 76 75 73 71 70 70
90 87 75 73 75 78 80 81 81 80 80 81 83 79 80 86 87 85 84 84 82 81 79 80 70 72 73 75 75 74 72 70 73 74 75 75 75 75 74 74 74 74 75 74 73 71 70 70 70
81 85 72 71 76 79 81 82 81 80 82 81 80 81 82 87 84 84 81 81 80 79 78 78 72 71 72 72 70 70 71 66 70 74 74 74 74 73 73 73 73 73 73 72 71 70 70 69 69
77 78 72 75 75 76 79 83 81 80 81 82 86 77 84 85 84 81 77 77 77 79 78 76 77 74 68 67 67 68 68 67 69 73 72 72 72 72 73 73 73 72 71 70 70 69 68 68 68
84 80 73 77 74 75 83 81 84 81 81 86 87 78 79 84 84 82 78 77 75 72 73 76 74 72 71 70 67 68 68 67 70 70 69 68 69 71 72 71 71 71 70 70 69 68 68 67 67
87 72 70 75 76 78 84 79 87 88 83 86 85 85 86 85 83 82 74 70 72 66 66 68 72 71 70 71 70 67 66 68 68 70 68 67 68 70 73 73 70 69 69 68 68 67 66 66 66
78 72 74 84 82 79 81 80 82 81 82 82 82 86 84 84 83 81 78 69 69 69 65 67 71 69 69 71 74 76 77 77 73 72 72 69 69 69 73 70 68 68 68 67 67 66 66 69 75
79 71 81 82 82 85 82 82 85 81 78 84 81 84 88 83 83 82 81 77 71 72 70 68 66 71 72 70 72 74 73 73 72 72 69 66 67 66 69 68 69 71 69 72 71 70 76 77 77
73 79 81 83 84 81 79 84 81 83 82 87 87 87 87 83 82 82 81 80 74 73 71 69 67 69 71 73 72 74 73 73 71 71 66 65 64 64 66 67 70 74 75 73 73 75 78 77 77
75 78 81 83 83 82 82 79 79 80 86 89 86 83 84 84 84 84 83 81 78 75 72 69 71 66 68 70 73 69 72 73 71 68 68 64 64 65 65 67 73 76 78 76 76 78 78 77 77
79 79 79 82 81 82 77 78 80 82 88 84 81 82 84 83 84 84 81 79 78 78 77 70 68 67 71 72 71 67 67 68 67 64 66 64 63 63 64 65 69 77 79 78 78 77 77 77 77
78 72 76 78 80 79 81 73 75 83 85 82 81 81 83 83 85 82 82 80 78 79 80 72 70 67 70 68 65 63 63 61 60 60 62 62 62 63 67 65 69 71 77 77 73 75 77 77 77
71 71 64 76 79 80 78 67 80 86 82 80 82 82 81 82 83 84 83 81 81 79 78 72 69 69 68 67 62 62 60 59 59 59 59 61 62 65 64 65 68 72 73 75 73 72 72 75 76
67 61 65 70 79 78 75 70 82 85 82 80 82 82 82 81 82 84 82 81 79 78 78 72 69 69 68 67 62 61 60 59 59 59 58 59 61 62 63 66 68 69 71 68 69 70 70 72 74
56 62 66 67 77 75 73 71 79 83 81 80 83 83 83 81 82 83 82 81 80 79 77 73 69 64 64 61 62 60 59 59 59 62 59 60 61 63 65 66 65 67 67 68 70 68 70 71 74
66 67 68 73 77 72 71 72 77 82 83 81 82 83 83 83 86 84 81 79 78 76 73 69 64 61 61 60 59 58 57 57 58 61 62 62 66 67 68 70 70 70 68 69 70 70 69 71 74
64 63 65 71 75 69 70 71 77 80 81 82 83 84 84 84 84 81 79 78 75 73 72 69 67 63 62 62 62 60 59 58 59 61 63 64 66 69 73 72 70 70 69 70 69 69 68 70 72
63 61 63 64 72 71 68 66 71 78 81 83 85 85 86 85 83 80 76 76 74 73 71 69 64 63 64 64 62 60 59 58 57 58 62 65 65 69 71 69 69 67 71 70 70 71 70 68 69
55 67 66 65 63 56 72 56 70 76 78 80 81 82 84 85 85 83 77 74 74 73 72 67 64 63 64 64 61 59 58 56 59 60 62 66 67 66 67 68 67 67 68 69 68 71 69 68 64
59 68 67 66 62 60 63 58 65 75 73 76 80 83 85 85 85 82 79 76 76 75 72 67 65 64 66 65 62 62 60 60 60 61 62 63 64 65 66 65 65 64 65 69 67 68 67 68 65
66 64 64 64 61 49 59 59 61 69 73 77 81 83 84 85 85 84 82 79 77 77 72 69 67 65 65 66 64 64 62 59 57 58 59 61 62 62 63 66 62 63 64 66 68 68 66 66 66
62 59 48 46 46 45 63 59 62 72 76 78 78 82 84 85 83 83 81 78 77 75 71 70 69 66 65 65 65 65 65 64 59 59 59 60 60 60 61 62 63 63 65 69 69 66 67 66 65
58 58 49 39 43 49 64 53 64 75 80 81 82 82 84 83 84 83 82 79 77 75 72 71 70 69 65 64 65 67 67 66 67 63 62 62 61 61 62 62 63 64 64 67 70 67 68 68 66
53 51 62 49 53 48 55 63 71 73 74 79 79 81 82 84 85 83 83 80 78 76 73 71 72 72 70 66 64 66 68 67 67 67 67 65 65 66 66 64 65 65 67 66 70 67 67 69 65
57 61 46 49 39 39 52 56 59 67 68 75 77 78 81 83 84 84 84 80 80 78 75 73 73 74 73 71 68 68 68 68 69 68 68 68 70 71 70 69 67 66 66 70 70 70 70 69 68
54 52 52 54 52 43 42 51 70 69 70 73 77 78 80 81 81 84 84 83 81 80 77 74 72 74 75 74 72 71 70 69 69 70 70 70 70 70 70 70 68 69 70 70 70 70 70 69 69
62 57 56 45 45 51 50 49 73 72 70 72 76 78 81 82 82 83 83 83 81 79 77 75 72 73 75 76 74 72 73 72 70 70 71 71 70 70 70 71 70 71 71 71 70 69 70 70 69

GFSSGP_sfc_temp_084.txt.gz
Temp
76 82 87 84 69 71 67 74 83 78 79 85 85 81 78 81 77 65 85 84 84 82 79 79 74 75 75 75 75 75 75 76 75 75 75 75 75 75 75 76 76 77 77 77 77 76 76 75 74
87 90 88 80 65 63 70 79 76 80 83 85 83 82 80 77 87 83 82 86 86 85 83 80 74 74 75 75 74 74 75 76 75 75 75 75 75 75 75 75 75 75 76 77 77 76 75 74 73
80 90 78 72 69 64 70 78 80 83 85 82 81 86 83 78 83 84 85 85 85 85 85 80 73 73 74 74 74 74 75 75 75 75 75 76 76 75 75 74 74 75 76 77 76 75 73 72 72
85 85 80 67 66 75 78 81 82 81 83 85 84 78 86 88 86 87 86 87 84 81 83 71 71 73 74 74 74 74 74 73 74 74 75 76 76 75 74 73 73 74 75 76 74 73 72 71 71
86 81 69 67 70 78 81 83 82 79 81 82 83 77 80 85 87 86 85 84 82 80 81 75 70 72 74 74 74 71 70 68 66 71 74 75 75 74 74 73 73 73 74 74 73 71 71 71 71
76 79 65 64 72 81 82 84 81 80 82 82 80 79 80 86 84 83 81 81 80 79 78 78 71 71 72 71 69 68 67 67 67 65 68 74 74 73 73 73 73 73 72 72 71 70 70 70 70
73 72 67 69 71 76 80 85 80 80 81 81 86 76 82 82 84 79 78 77 77 78 77 74 74 72 68 68 68 68 68 68 67 66 64 72 72 72 72 72 72 71 71 70 70 69 69 69 69
78 74 67 71 70 73 84 82 84 81 79 87 87 76 76 79 82 80 77 76 74 73 72 71 72 71 70 67 67 68 68 68 68 66 67 69 70 71 71 71 70 70 70 69 69 68 68 68 68
85 68 64 69 72 78 84 79 85 88 83 85 86 84 87 85 82 80 72 72 71 68 67 71 69 70 69 69 69 67 68 68 67 67 66 67 69 67 70 70 69 69 69 69 68 67 67 67 67
75 68 68 78 81 79 83 81 81 81 80 81 82 87 86 85 81 78 75 71 69 67 66 69 70 67 69 70 69 69 69 68 67 65 66 67 67 67 69 68 68 68 68 67 67 66 66 68 65
76 68 76 79 83 83 81 82 85 80 76 81 81 84 86 83 82 80 81 77 71 70 68 68 68 68 66 67 68 69 67 67 68 66 66 67 66 66 65 65 66 66 67 66 65 65 68 67 66
71 77 78 80 83 82 78 82 80 81 81 87 87 87 86 85 82 82 81 79 73 71 71 68 68 68 69 67 68 67 67 67 67 67 67 66 65 64 64 64 64 66 66 65 65 66 66 66 67
73 76 80 81 82 81 82 78 77 78 84 87 88 86 83 84 84 84 84 78 76 72 68 69 69 67 68 68 68 68 67 67 67 67 67 66 65 64 65 65 63 67 68 67 65 67 69 67 67
77 78 78 80 80 80 77 77 79 80 85 84 85 83 83 83 84 84 81 79 76 76 70 69 69 67 68 67 68 67 68 67 66 66 67 66 65 63 64 63 64 69 69 69 68 68 68 68 67
77 70 74 77 78 76 80 72 73 81 84 82 83 82 82 83 85 82 81 78 77 77 72 67 66 66 66 68 66 65 65 65 65 66 66 65 65 64 63 63 63 69 70 69 68 69 67 66 69
69 69 61 72 76 78 76 63 76 84 83 80 81 81 81 82 84 84 83 81 78 78 75 69 68 66 66 64 63 60 60 60 60 60 65 65 64 65 63 62 62 64 66 67 69 66 64 64 64
64 56 60 65 76 76 75 67 78 84 83 79 80 81 81 81 82 83 83 81 80 78 75 69 66 66 65 63 62 59 59 58 58 59 59 63 62 63 63 62 62 62 62 64 66 65 63 63 64
55 57 61 62 72 76 71 69 76 82 80 79 80 81 81 81 81 83 82 80 79 76 74 68 67 66 65 63 60 59 58 58 58 57 58 59 60 60 60 59 60 61 61 63 63 63 63 63 64
63 60 59 66 75 72 69 70 74 79 80 78 79 80 81 81 84 83 80 78 76 74 72 67 65 65 63 61 58 57 56 56 56 57 58 58 59 60 59 58 59 60 60 61 63 62 62 62 64
61 56 58 66 72 71 69 68 74 78 79 80 81 81 81 82 83 81 78 76 74 72 70 66 66 64 63 62 60 59 58 58 57 57 59 59 59 60 60 61 61 62 61 61 62 62 60 61 63
59 56 58 59 67 72 68 63 68 75 79 81 83 83 84 83 81 79 76 74 72 70 69 65 65 63 63 62 60 59 58 57 56 57 58 58 60 62 64 63 64 64 63 62 62 61 61 59 60
51 64 63 61 59 53 68 50 65 72 74 78 80 80 81 82 83 80 76 74 72 70 70 68 64 63 63 62 59 57 56 54 57 58 59 59 62 63 64 64 65 63 63 62 62 63 63 61 60
52 63 59 58 56 57 59 54 60 71 69 75 78 80 80 82 82 80 76 75 75 72 68 67 64 63 64 62 60 58 57 59 59 58 58 59 62 63 64 65 64 63 63 62 64 63 61 60 59
58 55 55 56 56 46 56 54 56 63 69 75 80 81 81 82 82 83 78 77 75 72 68 65 62 62 63 62 60 59 59 58 56 58 58 59 60 61 63 63 63 63 62 63 62 61 61 60 60
58 50 35 35 40 41 58 55 58 69 75 78 78 80 81 82 80 80 77 75 74 70 67 64 63 61 62 62 62 61 60 60 58 58 59 59 59 59 61 62 62 62 62 62 62 62 62 61 60
53 52 38 33 37 44 59 51 61 74 78 80 82 81 81 81 79 80 78 75 74 71 68 66 65 63 62 63 62 63 62 62 61 61 61 60 61 61 62 62 62 62 62 62 62 60 62 60 59
48 46 56 44 45 38 50 61 70 74 74 76 77 79 78 79 80 80 80 76 75 72 68 66 67 66 63 63 63 63 63 62 61 61 62 61 62 63 62 61 62 63 63 62 63 61 61 62 61
53 57 41 42 33 32 47 53 56 64 67 72 74 76 78 81 82 81 81 76 76 74 70 67 69 68 66 64 64 64 64 64 63 63 61 61 62 63 62 60 61 61 62 62 62 63 63 62 61
49 44 43 45 44 34 35 46 61 64 69 69 72 75 76 78 79 80 80 79 77 76 73 69 69 69 68 64 64 64 64 65 64 64 63 62 62 62 63 62 62 62 62 63 62 63 63 63 61
56 51 47 36 38 44 39 42 66 66 70 71 70 74 77 80 80 80 81 80 77 76 74 71 69 70 70 69 65 63 64 65 64 64 65 64 63 64 64 65 64 63 63 63 62 62 64 63 61

GFSSGP_sfc_temp_087.txt.gz
Temp
66 67 66 66 53 50 47 57 65 64 65 70 76 73 67 70 69 57 74 78 77 74 74 75 74 75 75 75 75 74 75 75 75 75 75 75 75 75 75 75 76 77 77 77 77 77 77 75 74
69 76 68 61 49 41 49 64 61 69 74 77 77 75 71 68 76 74 73 79 78 75 75 74 73 74 74 74 74 74 75 75 75 75 75 75 75 75 75 75 75 76 76 77 77 76 76 74 73
71 76 60 54 48 47 49 65 66 72 77 76 71 76 75 70 77 75 77 80 79 76 76 75 72 73 74 74 74 74 75 74 74 75 75 75 75 75 75 74 74 75 76 77 76 76 74 73 72
69 65 63 51 49 59 63 66 70 73 74 77 73 68 76 79 79 78 80 79 76 74 73 71 71 72 74 74 74 74 74 73 72 72 75 76 75 75 74 74 74 75 76 76 75 74 73 72 71
66 61 50 47 53 64 70 72 74 71 74 75 75 70 70 76 79 78 77 79 73 72 71 70 70 72 73 74 74 73 73 70 68 69 68 70 75 75 74 73 73 74 74 74 74 72 72 71 71
58 59 45 44 56 67 72 74 76 74 73 76 73 71 69 77 75 73 74 72 72 71 71 70 71 71 72 72 72 71 69 68 69 67 67 66 70 73 73 73 72 72 72 72 71 71 71 70 70
55 51 48 52 58 65 71 73 72 73 71 72 75 68 68 71 71 72 70 69 69 69 71 69 69 69 69 68 68 68 68 69 68 68 66 66 65 72 72 72 72 72 71 71 70 70 70 70 69
62 56 51 57 58 60 71 75 77 73 72 81 78 67 62 69 71 70 68 66 65 66 68 70 68 67 64 65 67 67 68 68 67 68 66 65 65 71 71 71 71 70 70 70 70 69 69 68 68
64 53 51 55 59 65 72 68 71 76 73 74 77 76 75 73 72 66 64 62 62 63 64 68 68 66 65 64 66 68 68 68 67 67 66 65 66 68 70 69 69 70 69 69 68 68 68 67 67
60 52 56 66 69 66 74 72 74 69 70 71 74 75 75 74 70 64 63 61 61 60 62 66 67 66 65 66 64 64 66 66 65 64 65 65 67 66 67 68 68 68 68 68 67 67 67 67 64
63 57 65 69 73 70 69 69 71 70 62 71 71 70 72 72 70 68 66 65 62 62 62 66 66 65 66 65 63 64 64 64 64 64 65 65 65 66 66 65 65 65 66 65 65 65 64 63 64
58 66 69 71 74 72 66 69 68 65 71 74 70 75 71 71 71 71 68 65 63 62 62 63 65 64 65 65 65 64 64 64 65 63 65 65 65 64 64 64 63 63 64 61 62 60 61 62 65
63 66 71 73 74 72 72 68 69 70 74 76 78 77 74 74 71 72 70 67 65 63 62 63 63 63 65 63 62 63 63 63 64 65 66 65 65 64 63 64 63 64 63 62 60 61 63 63 65
68 68 69 72 71 72 70 67 66 71 75 77 77 73 72 73 73 70 68 67 66 65 63 62 63 62 62 62 62 61 63 63 63 65 65 65 65 64 63 63 62 62 65 63 63 61 64 62 65
68 61 66 68 67 66 70 62 66 72 75 74 74 74 73 74 74 71 69 67 67 66 65 63 62 63 63 62 62 62 61 62 62 64 65 65 65 64 64 63 62 64 66 65 64 63 63 62 66
60 60 53 63 67 69 62 56 68 72 71 71 72 71 72 73 74 71 69 70 68 65 63 63 64 61 64 63 60 58 58 58 61 63 65 65 65 65 64 62 61 63 66 65 64 65 64 62 62
51 45 50 57 68 67 65 60 71 74 73 72 71 69 70 70 71 71 70 70 69 65 63 61 61 60 61 61 60 59 59 58 59 60 63 64 65 64 63 62 62 62 63 64 64 61 63 62 61
44 47 49 51 62 66 62 61 70 70 70 70 67 68 68 70 70 72 71 71 68 65 64 62 61 60 60 60 58 58 57 57 58 58 61 63 63 64 63 62 61 61 62 63 65 61 61 63 63
56 53 52 56 66 64 63 63 67 68 66 66 65 66 69 70 73 73 72 70 68 64 62 61 60 59 60 58 57 56 55 56 56 57 59 61 62 61 61 59 59 59 62 62 62 62 62 60 61
52 48 46 57 64 62 60 60 63 67 66 66 69 66 69 66 72 71 69 69 67 62 62 60 60 59 61 60 59 58 57 57 57 57 57 59 60 60 61 59 58 58 59 60 59 59 58 59 60
46 47 47 51 59 62 58 57 62 68 69 71 71 71 72 70 70 69 68 66 64 61 60 60 59 59 61 61 60 58 57 56 55 55 56 58 60 60 59 58 58 58 59 59 58 59 60 60 58
42 54 56 52 45 38 55 41 57 64 66 70 73 69 68 70 71 70 67 65 63 61 61 60 59 59 61 61 58 56 55 54 56 56 58 58 59 60 60 60 61 60 60 59 59 60 59 58 58
45 54 52 47 44 46 48 44 53 63 62 65 70 74 68 69 70 68 67 67 65 63 60 60 60 61 61 60 59 58 56 58 57 57 56 57 58 60 60 61 61 61 60 60 61 59 58 57 56
52 45 47 47 44 34 43 43 47 56 62 66 70 71 72 68 70 70 70 67 65 64 60 59 59 61 61 60 59 58 57 57 54 56 55 56 59 58 59 62 62 60 61 59 59 59 58 58 57
46 41 33 31 31 30 49 44 49 61 68 69 70 71 72 71 67 68 66 65 64 62 59 59 59 60 61 60 59 59 59 58 57 57 56 57 58 57 58 60 61 60 60 60 60 59 59 58 57
45 41 34 28 28 34 51 43 52 67 71 72 72 70 69 67 68 68 68 67 64 62 60 59 59 61 61 60 59 60 61 59 59 59 59 59 59 60 57 58 60 60 59 59 60 60 58 58 57
42 38 48 36 40 33 40 49 63 67 69 69 68 70 67 65 68 68 68 68 65 62 59 59 59 60 62 60 60 60 60 59 59 58 59 60 60 61 58 59 60 59 60 60 59 58 59 59 58
45 48 38 36 29 28 40 44 48 58 61 66 65 65 67 67 68 70 69 68 67 64 61 60 60 60 60 63 62 62 61 60 59 59 59 59 59 61 61 58 61 60 61 61 60 60 59 59 59
43 37 40 41 40 32 31 38 52 55 62 62 63 65 67 70 69 67 70 70 68 66 63 62 61 61 60 61 62 62 62 61 59 59 60 59 59 60 61 59 59 61 61 61 61 61 61 60 60
46 41 42 35 35 39 36 37 56 55 61 63 63 68 68 69 69 68 70 69 67 66 63 63 63 63 61 61 62 62 63 62 61 61 60 61 59 60 60 59 60 60 61 61 60 60 62 60 59

GFSSGP_sfc_temp_090.txt.gz
Temp
63 64 64 64 52 46 42 51 59 62 60 67 71 70 66 64 65 55 71 73 73 72 73 74 73 74 74 74 74 74 75 75 75 75 75 75 75 75 75 75 76 76 77 77 77 76 76 76 74
66 71 64 56 46 39 45 55 58 64 71 72 73 72 67 64 72 70 70 74 74 73 73 73 73 73 74 74 74 74 75 75 75 75 75 75 75 75 75 75 75 76 77 77 78 76 76 74 73
70 73 58 51 42 41 46 58 61 67 73 73 69 71 70 67 72 72 75 75 74 72 73 73 72 73 74 74 74 74 74 74 74 74 75 75 75 75 75 74 74 75 76 77 77 76 74 73 72
67 62 57 48 45 51 55 61 67 69 68 71 71 66 72 75 75 75 77 76 73 72 73 71 71 72 73 74 74 74 73 73 73 74 75 75 75 75 74 73 74 75 76 76 76 75 73 72 71
62 55 46 42 47 55 62 67 69 69 69 71 72 66 66 72 75 75 75 75 70 69 69 70 70 71 73 73 74 73 73 71 71 70 71 70 70 73 74 73 74 74 75 75 74 73 72 71 71
56 54 42 40 50 60 63 69 71 71 70 72 69 65 65 73 73 71 71 70 70 68 68 69 71 71 72 72 72 72 70 69 69 69 69 68 67 69 72 72 73 73 73 73 72 71 71 70 70
52 47 43 45 51 57 64 71 67 69 68 69 72 61 64 68 69 68 67 67 67 68 67 70 70 70 70 70 69 69 69 68 68 68 68 68 66 65 67 72 72 71 72 71 71 70 70 70 69
56 51 42 48 50 53 64 70 73 68 68 76 74 61 60 68 68 67 65 64 64 65 66 66 67 67 65 65 67 67 67 68 67 67 67 67 66 65 64 69 71 71 71 71 70 69 69 69 68
59 46 42 49 53 58 67 66 71 70 70 71 75 69 71 69 67 64 61 60 61 62 63 65 64 66 64 64 66 67 68 68 67 67 67 65 64 64 64 69 69 70 69 69 69 69 68 67 68
54 44 49 58 61 61 67 66 70 67 65 68 70 68 69 68 66 62 60 59 59 60 61 64 65 65 64 65 64 64 66 65 64 64 64 63 63 63 65 69 68 69 68 68 68 68 67 67 67
53 53 57 62 64 64 65 64 67 66 59 68 69 63 65 65 64 64 63 62 60 60 61 63 64 65 65 63 62 61 62 64 63 64 64 64 64 66 66 65 65 65 66 66 66 67 63 63 62
52 59 61 64 67 64 63 68 65 64 69 73 68 68 67 65 64 64 63 61 60 60 61 62 64 64 65 65 63 61 62 64 62 64 64 64 65 64 64 64 64 65 63 60 58 60 60 60 61
55 60 64 66 68 67 69 66 67 66 71 73 74 69 67 67 67 67 67 63 61 60 61 61 62 64 62 65 64 62 62 64 63 64 64 65 65 64 64 63 63 64 62 61 58 58 60 60 61
62 62 63 66 66 67 65 66 62 68 72 72 73 69 67 68 67 64 63 61 62 62 61 61 61 62 62 61 61 61 61 62 64 64 65 65 65 65 64 63 62 62 64 62 61 58 58 59 60
63 57 61 62 61 61 65 62 59 69 71 70 71 72 69 69 66 67 65 63 63 63 63 61 61 61 61 61 60 60 60 62 64 64 65 65 65 64 64 63 61 62 63 63 62 57 58 59 61
55 53 46 59 61 62 61 54 63 68 67 66 68 68 69 68 69 65 66 66 64 63 61 62 63 61 60 60 61 61 59 59 62 64 65 64 64 64 64 62 60 62 63 63 63 59 59 58 59
47 42 47 51 60 60 58 56 63 68 67 66 68 66 67 67 67 66 67 67 65 63 62 61 61 60 59 60 60 59 59 58 60 62 64 64 64 64 64 62 61 60 62 62 62 58 62 60 58
41 42 42 43 52 59 56 56 61 68 66 66 70 65 67 68 68 67 67 68 64 62 62 62 60 59 59 59 58 58 58 57 58 57 61 64 64 64 64 63 61 61 60 62 62 61 59 60 60
49 47 45 48 56 52 53 54 59 64 67 66 66 64 67 69 72 68 68 67 61 61 61 60 58 59 59 57 57 56 55 56 56 57 59 62 63 62 62 61 60 61 62 63 63 63 62 59 58
49 44 43 49 57 55 52 51 57 61 63 66 66 62 67 67 64 66 65 63 61 60 60 59 59 60 60 57 58 58 57 56 56 57 58 61 61 63 62 62 60 60 62 62 63 62 58 59 61
45 42 43 45 53 54 47 45 52 60 63 66 66 69 69 67 64 65 64 62 59 59 59 59 59 59 59 59 59 57 56 55 55 55 56 59 61 61 61 61 60 60 61 61 63 63 63 61 57
40 49 49 49 41 34 51 35 47 54 58 64 65 63 66 66 68 66 64 61 59 59 60 59 58 58 59 59 58 56 55 53 55 56 56 58 59 60 60 60 60 59 58 59 62 64 63 62 59
43 51 49 47 41 39 43 37 43 55 55 61 67 67 67 64 67 66 65 63 61 59 58 58 58 57 58 60 59 57 56 57 56 56 56 56 57 58 58 59 58 57 57 58 60 58 58 59 55
51 47 45 46 41 31 41 40 40 49 56 62 68 67 68 67 68 67 67 65 58 59 58 57 57 57 58 59 58 58 57 56 54 55 55 55 57 56 58 59 59 58 57 57 57 58 58 57 56
45 39 31 29 30 29 47 42 44 57 62 66 67 68 69 63 66 66 63 60 58 57 57 57 57 56 58 59 58 58 58 56 56 55 55 55 56 56 56 58 58 58 59 58 58 58 57 57 57
41 39 33 26 27 32 46 39 46 60 65 68 71 69 69 65 66 65 63 61 59 58 57 57 57 56 58 59 58 59 59 55 55 57 57 57 58 58 59 57 57 57 60 60 59 58 57 56 57
39 35 43 34 36 32 37 45 56 62 63 66 69 66 59 64 64 64 63 62 61 58 57 58 58 58 58 59 59 59 59 57 56 57 58 58 59 60 58 56 57 56 57 58 59 57 55 55 55
44 44 35 35 28 27 37 40 42 50 53 62 62 61 59 60 65 64 64 63 62 60 59 58 59 58 58 61 60 60 60 60 59 58 55 56 58 60 59 56 58 59 58 58 57 59 57 56 57
39 37 37 39 37 30 30 37 49 48 53 55 59 64 61 63 61 64 65 65 63 61 59 58 58 59 58 59 59 60 59 60 59 56 56 56 57 57 57 59 58 59 59 59 58 58 58 57 58
46 39 38 34 32 36 35 37 50 51 53 57 58 63 65 62 62 65 66 65 62 59 58 58 58 58 59 60 59 60 60 60 58 57 57 57 57 57 58 58 58 59 59 60 59 58 60 57 57

GFSSGP_sfc_temp_093.txt.gz
Temp
62 63 62 62 51 45 40 48 53 58 59 65 69 66 64 62 63 54 68 72 72 70 72 73 73 74 74 74 74 74 75 75 75 75 75 75 75 75 76 75 75 76 78 78 77 77 76 76 74
63 67 62 53 44 37 43 52 55 60 67 68 69 66 64 61 68 68 68 71 72 71 72 72 72 73 74 74 74 74 75 75 75 75 75 75 75 75 75 75 75 76 77 77 77 77 76 74 73
68 68 57 49 39 38 44 55 57 65 68 67 67 67 67 65 70 69 72 72 72 70 71 72 72 72 73 73 73 74 74 74 74 74 75 75 75 75 75 74 74 75 76 77 77 76 74 72 72
64 61 55 45 42 47 52 57 61 66 69 68 66 62 68 72 71 74 73 73 70 69 70 70 71 72 73 74 74 74 74 73 73 74 75 75 75 75 74 74 74 75 76 77 76 74 72 71 71
59 53 44 39 43 49 57 62 63 64 65 69 68 63 64 71 73 72 72 73 69 68 68 69 70 71 73 74 73 73 73 72 73 74 74 74 74 74 73 73 74 75 76 76 74 72 71 71 70
53 51 40 39 47 53 59 64 65 66 67 69 64 63 63 69 70 68 70 69 69 68 68 68 71 71 71 72 72 72 71 71 71 71 70 71 72 71 71 72 73 73 74 73 72 71 71 70 69
50 45 41 40 46 52 60 64 62 65 65 67 68 61 62 65 65 67 66 67 67 67 67 67 68 70 70 70 70 69 69 70 70 69 69 70 69 68 69 70 72 72 72 71 71 71 70 69 69
53 49 40 45 47 50 61 65 67 64 66 71 70 60 59 66 65 64 64 64 65 65 66 66 67 67 67 66 68 68 68 67 67 68 67 67 68 68 68 69 69 71 72 71 71 69 69 69 68
54 43 40 49 49 53 61 62 63 67 65 69 71 66 68 67 64 62 60 60 60 62 63 64 64 64 64 65 67 67 67 68 67 67 67 65 64 64 66 67 68 69 70 69 69 69 68 67 67
51 41 45 54 57 57 60 61 63 64 65 66 66 65 65 66 63 61 60 59 59 59 61 65 62 62 62 66 66 64 66 66 65 64 64 63 64 63 65 67 67 68 68 69 68 67 67 67 65
51 50 54 58 60 59 58 58 60 60 59 65 66 61 61 63 63 61 61 61 62 60 60 62 62 62 61 62 63 63 62 61 62 62 63 63 62 63 63 65 66 66 68 66 66 65 65 64 64
49 55 61 60 62 57 57 60 59 59 66 70 70 64 61 61 62 62 61 60 59 59 60 61 62 63 62 64 61 61 61 63 63 62 63 63 62 63 64 65 65 63 64 64 65 61 64 62 63
52 55 59 61 61 59 62 60 60 64 67 71 68 64 62 63 63 65 63 61 59 59 60 61 61 61 63 64 62 60 61 63 63 62 63 64 63 62 63 64 64 63 63 63 61 60 62 62 62
58 59 59 60 60 60 61 61 58 64 68 67 67 62 62 64 64 62 60 59 59 61 60 60 61 60 61 61 63 63 62 64 63 62 63 65 64 63 63 63 63 62 63 63 63 60 60 59 61
60 55 57 56 57 58 61 56 55 65 67 65 67 65 63 65 65 64 65 61 61 62 62 60 60 60 61 60 60 62 62 63 63 62 63 64 65 64 64 63 62 62 63 62 60 57 59 59 61
53 51 43 55 58 60 59 51 60 65 64 63 64 65 64 65 65 67 67 65 63 62 60 60 62 60 60 59 59 60 60 62 63 63 64 64 65 65 64 63 61 61 61 61 59 59 58 57 59
44 39 42 49 59 58 54 53 57 61 63 61 62 63 63 62 62 64 67 66 63 63 61 60 60 59 59 58 58 58 59 60 61 63 64 64 64 64 64 62 61 60 60 61 60 56 59 56 58
38 39 35 42 50 52 50 50 52 58 58 59 59 62 61 63 64 67 66 65 64 62 61 61 60 59 59 59 58 56 56 58 58 59 62 63 64 64 64 62 60 60 59 58 60 59 58 56 59
47 43 41 43 54 51 48 47 52 55 56 56 58 60 63 65 68 68 65 63 62 60 60 60 59 60 59 58 56 56 56 56 56 56 57 61 63 63 63 62 59 59 60 61 61 60 60 57 58
45 42 41 47 53 51 46 46 52 56 54 58 60 61 64 67 60 63 63 60 60 61 62 61 60 60 60 60 59 58 57 56 56 57 56 58 62 63 63 62 59 59 60 61 61 62 57 56 60
41 40 41 43 48 48 45 46 51 60 59 60 61 63 66 68 60 62 62 58 60 61 61 60 60 60 60 57 55 55 55 55 54 55 56 58 61 62 62 61 60 59 57 59 61 62 62 58 54
36 47 47 45 40 34 44 34 49 54 54 58 61 61 65 63 63 63 62 59 59 59 60 59 61 60 60 56 55 55 54 53 55 55 56 58 61 61 61 62 60 59 58 60 60 62 63 60 57
41 48 45 44 37 35 38 33 44 51 50 55 59 63 65 68 63 63 62 61 61 59 58 60 60 59 59 56 56 54 53 53 53 55 55 56 58 59 61 60 60 59 59 58 57 58 59 60 58
49 44 43 41 38 30 38 36 39 46 50 56 62 65 68 65 63 65 65 63 59 58 59 59 58 58 59 56 55 55 56 55 52 54 54 55 56 56 58 59 58 58 57 56 55 56 58 57 58
43 38 25 28 28 27 43 37 41 51 56 59 62 66 69 65 62 63 61 59 56 57 58 58 58 57 58 56 55 57 57 56 52 55 55 55 54 55 56 58 57 57 58 57 56 56 57 57 58
37 39 30 25 25 30 43 34 43 57 61 61 65 64 67 67 63 63 63 60 57 57 58 58 57 57 58 57 55 59 59 55 54 54 57 56 56 57 56 57 59 59 59 58 58 57 57 56 56
38 35 43 34 35 30 35 42 52 54 54 57 59 59 59 65 64 64 63 59 58 57 56 56 57 58 59 59 56 58 58 57 54 54 57 55 56 58 57 57 57 58 58 58 58 56 56 56 56
41 44 34 35 27 27 34 36 39 44 47 52 54 57 57 57 59 64 62 60 59 58 57 57 57 57 59 60 58 56 56 56 55 54 55 53 54 56 55 55 56 57 58 58 57 58 58 57 56
38 37 37 37 35 29 29 34 48 45 47 49 51 56 58 57 57 60 62 61 60 59 57 57 57 57 58 60 60 57 56 56 55 54 54 54 54 55 56 56 56 56 56 56 56 58 59 57 58
42 40 39 32 32 34 35 33 49 49 50 50 51 55 58 59 57 59 61 61 58 57 57 56 57 57 58 59 60 58 57 57 56 55 54 54 54 55 56 56 56 57 57 56 56 56 57 56 56

GFSSGP_sfc_temp_099.txt.gz
Temp
70 72 75 75 65 62 57 61 63 65 67 72 75 73 74 74 70 68 77 80 78 78 78 77 73 74 74 75 74 74 75 76 76 76 76 76 76 76 76 76 76 77 78 78 78 77 77 76 75
72 73 73 67 60 55 60 61 62 68 73 74 73 72 72 72 75 75 77 79 80 79 77 78 72 73 74 74 74 74 75 76 76 75 76 76 76 76 76 75 75 77 78 78 78 78 77 75 73
74 73 70 65 56 57 60 62 69 70 73 73 74 76 75 75 76 79 81 79 78 78 78 77 72 72 73 73 74 74 75 75 75 75 76 76 76 76 76 75 75 76 77 77 78 77 75 73 72
73 72 65 58 55 58 62 68 69 69 73 74 76 73 75 79 77 81 81 79 78 77 78 73 71 72 73 73 74 74 74 73 74 74 75 76 76 76 75 74 75 76 77 77 77 75 73 72 71
69 65 58 54 55 58 63 66 68 69 70 73 74 72 72 77 78 78 77 78 77 75 75 74 70 71 73 73 74 73 73 73 73 74 74 75 77 75 72 71 74 75 75 75 74 72 71 71 70
64 62 53 53 60 58 64 68 69 68 72 72 72 72 75 76 76 75 76 77 77 75 74 75 72 71 72 73 73 72 72 72 72 74 74 74 73 72 71 71 72 74 73 73 72 71 70 70 70
63 57 54 53 56 57 62 71 69 70 69 71 75 72 75 74 77 75 76 76 75 74 73 74 75 74 70 70 70 70 70 71 71 72 72 72 71 71 71 72 73 73 72 72 71 70 69 70 69
64 61 51 53 58 59 66 68 72 71 70 75 75 72 74 74 74 75 75 75 73 73 73 73 75 75 75 75 69 69 70 70 70 70 69 70 70 70 71 71 72 72 71 71 70 69 68 68 68
61 55 52 55 57 62 67 65 71 73 72 73 76 74 71 70 72 72 67 68 69 69 73 73 73 74 74 75 72 69 70 69 68 70 69 68 75 74 74 72 70 70 70 70 69 68 67 66 66
60 53 55 59 64 63 66 65 68 69 69 71 72 71 69 69 70 70 67 66 66 67 69 73 72 73 73 73 71 71 70 68 68 70 72 72 71 71 72 70 68 69 69 69 68 67 66 68 71
58 54 57 60 65 65 65 65 68 68 66 72 71 73 70 69 70 70 71 71 69 69 67 69 70 71 72 70 68 68 68 67 66 68 68 67 66 66 67 68 69 71 69 68 66 66 70 73 74
54 56 61 63 66 64 63 68 65 68 69 75 76 74 73 70 70 70 71 72 70 68 68 68 68 70 70 71 67 67 67 68 66 65 66 65 65 65 65 67 69 67 68 66 64 66 71 71 72
54 57 60 63 65 64 65 63 63 66 69 75 73 71 73 73 73 73 74 74 72 70 70 68 67 68 70 70 71 69 67 66 66 65 65 65 66 66 68 66 65 65 65 63 62 63 64 68 71
60 59 61 62 63 63 61 63 63 66 71 69 69 72 74 72 73 73 71 71 70 72 71 69 66 67 69 69 69 70 69 67 66 64 65 67 66 65 64 65 63 64 65 63 61 61 64 69 72
60 55 58 59 61 61 62 58 58 67 69 68 70 70 73 72 73 71 73 72 72 73 72 68 66 66 66 66 69 69 69 68 65 65 66 67 67 67 65 63 63 63 64 61 61 60 61 70 71
55 54 49 57 59 62 62 54 64 70 66 66 68 69 69 73 73 74 74 73 74 74 70 69 68 65 65 65 67 67 66 66 67 67 68 67 68 68 65 62 63 62 61 59 59 59 58 63 68
49 46 46 52 60 60 58 57 65 66 65 65 67 69 67 69 72 73 74 74 74 73 71 69 68 64 64 66 67 67 65 64 65 66 65 67 66 68 66 65 63 61 59 59 58 58 59 61 66
44 44 47 48 57 58 57 55 61 66 64 63 66 68 68 68 72 76 75 75 74 73 71 70 68 65 64 66 66 66 64 63 65 65 65 65 67 67 65 63 62 61 59 57 57 57 58 61 66
50 47 46 50 57 54 54 55 59 61 63 62 63 65 68 70 75 75 74 74 72 70 68 68 66 63 63 63 61 60 61 62 62 62 66 64 64 65 64 62 61 62 60 58 57 57 57 60 64
49 46 45 49 54 52 52 52 58 59 61 63 64 66 66 69 72 72 73 72 69 68 68 68 67 63 65 64 65 65 62 61 63 62 61 64 66 64 64 62 61 61 61 60 58 59 59 62 62
46 44 44 45 50 52 50 49 55 61 62 64 65 67 69 69 70 72 71 70 69 68 67 67 68 64 65 64 64 61 59 58 58 59 62 61 62 62 64 62 62 61 60 59 61 61 62 59 63
41 49 48 46 44 38 48 37 51 56 57 60 63 65 65 68 69 71 73 71 67 68 68 68 68 65 65 64 62 61 62 58 58 62 63 66 64 66 62 63 61 60 60 58 59 63 63 62 61
45 50 47 46 43 41 42 38 47 56 55 58 60 63 65 68 68 70 72 73 72 68 66 67 67 66 64 63 63 61 59 61 63 63 63 64 64 65 67 62 61 59 59 59 57 58 63 63 63
50 46 45 44 42 32 40 41 44 49 52 55 58 59 61 65 68 70 73 73 69 67 66 66 64 64 63 61 61 59 59 62 62 60 62 63 62 63 66 63 63 59 59 59 58 59 59 60 61
46 41 32 29 28 32 43 38 44 52 54 54 54 57 60 61 62 64 69 68 66 64 64 65 64 61 61 61 59 59 63 63 59 60 63 61 58 59 63 61 61 60 62 61 59 57 57 58 60
42 41 34 28 29 34 42 36 46 53 55 57 59 59 60 61 61 64 66 68 65 64 64 63 63 61 62 60 58 61 63 63 63 63 64 61 59 59 60 63 60 60 60 60 58 57 57 58 58
39 37 43 32 36 32 39 46 51 54 54 56 57 58 58 59 61 63 65 67 64 64 64 63 62 62 61 59 58 61 63 62 63 62 62 61 60 60 59 59 59 59 59 58 58 57 57 58 57
45 46 34 35 26 26 37 39 44 49 50 54 55 55 55 57 59 62 64 66 64 64 64 64 62 61 60 60 58 62 62 63 63 62 61 60 59 59 59 59 58 57 57 57 57 57 57 56 57
40 38 37 37 34 28 30 38 50 49 52 51 54 54 53 52 56 60 61 62 63 64 64 61 60 60 59 59 58 61 62 61 61 61 61 62 60 59 58 58 59 58 58 58 58 57 59 59 59
45 41 41 33 30 34 32 37 51 52 54 55 55 53 53 52 53 58 58 59 61 61 60 59 59 59 59 59 59 61 61 61 60 60 60 61 61 59 60 59 58 58 58 60 60 57 59 59 59

GFSSGP_sfc_temp_102.txt.gz
Temp
75 87 91 87 74 74 72 75 81 77 77 83 86 83 83 85 80 75 89 92 89 89 89 81 75 74 75 75 75 75 76 76 76 76 76 76 76 76 76 76 76 77 78 78 78 78 78 77 75
89 86 88 85 70 68 73 80 75 81 82 83 83 82 82 81 87 87 88 91 91 91 89 86 74 73 75 74 74 75 76 76 76 76 76 76 76 76 76 76 76 77 78 78 78 78 77 75 74
86 87 82 77 72 68 73 78 80 81 82 82 82 86 85 84 87 91 94 91 91 91 90 87 73 73 74 74 74 75 75 75 75 75 76 76 76 76 75 75 76 76 77 78 78 77 75 73 72
84 84 82 70 69 74 75 80 82 79 82 84 85 82 85 90 89 94 94 91 91 90 89 76 71 72 73 74 74 74 74 74 74 75 75 76 76 76 76 75 76 76 76 76 77 75 73 72 71
86 83 71 68 71 77 78 79 80 77 78 81 84 82 82 88 91 92 91 90 89 87 88 81 70 72 73 74 74 74 73 74 74 74 75 75 76 76 75 74 74 75 75 75 75 73 72 71 71
76 79 67 66 71 75 77 82 80 78 81 82 80 82 84 91 89 90 90 89 88 84 84 83 73 71 72 73 73 72 72 73 73 73 74 76 75 73 73 72 72 71 72 74 73 74 71 70 70
72 72 68 71 72 73 74 82 79 80 80 80 85 78 87 87 91 89 88 88 86 84 82 82 80 77 71 71 71 71 71 72 72 72 72 72 72 72 72 72 72 71 73 73 72 71 69 69 68
77 75 68 72 67 69 78 78 82 82 79 83 85 79 81 84 87 87 87 86 83 82 82 82 82 81 80 79 70 70 70 70 71 71 70 69 69 70 71 70 71 73 73 73 71 70 69 68 67
78 66 65 69 67 70 75 74 81 84 81 81 83 83 83 84 85 85 84 84 83 81 82 82 83 81 80 80 77 70 70 70 70 71 69 69 80 78 77 74 71 71 71 71 71 68 68 66 66
70 66 67 77 75 71 75 75 78 77 80 79 81 81 82 82 82 83 81 81 81 80 81 84 83 83 81 80 79 79 79 77 76 78 79 80 81 81 80 76 68 70 70 69 70 70 66 66 73
70 65 74 73 74 75 74 77 80 77 75 81 80 81 86 84 84 84 85 86 83 83 82 83 82 82 82 83 76 73 73 73 75 73 76 77 76 77 78 79 78 77 70 73 71 66 66 68 73
64 72 72 75 74 73 71 77 74 77 77 84 85 86 85 85 85 85 85 87 86 84 80 79 81 80 80 84 78 77 69 71 72 71 70 71 73 71 70 72 73 71 74 72 68 65 66 71 76
65 69 72 73 73 72 74 71 72 74 79 83 84 83 82 85 87 89 89 89 89 84 81 77 78 80 80 80 79 74 70 70 73 71 69 69 72 70 68 70 70 75 71 67 65 65 66 73 73
69 69 71 71 71 71 68 70 73 75 80 79 80 80 84 85 87 89 89 87 87 86 84 82 78 78 80 80 79 80 78 73 71 71 69 69 71 69 68 69 71 70 72 68 65 65 65 72 74
68 62 67 68 69 67 70 65 68 77 78 77 79 81 83 85 88 87 89 88 88 88 86 81 77 77 78 79 80 80 82 76 72 69 69 70 69 70 68 68 68 70 69 63 63 63 63 64 73
62 63 57 67 68 69 68 59 74 77 76 75 78 80 80 83 86 89 89 89 91 89 86 83 78 76 73 78 80 81 80 77 76 72 70 69 71 72 71 69 67 68 65 63 61 61 61 63 69
60 55 56 60 69 68 66 63 75 77 76 75 77 79 81 82 84 86 89 89 89 89 86 83 78 75 70 71 78 78 72 70 73 73 72 72 74 73 72 69 65 65 61 61 61 60 61 62 69
53 53 57 57 66 66 64 64 71 74 73 73 77 78 79 80 83 87 89 89 89 88 85 83 79 76 69 68 77 78 68 68 69 68 73 73 72 73 72 70 62 61 59 58 59 59 60 61 69
58 57 57 62 65 60 61 63 68 73 73 71 74 75 77 80 85 88 88 88 87 85 83 81 78 77 69 68 70 68 64 65 69 67 70 72 71 70 69 67 63 61 59 58 59 58 58 59 64
55 54 55 60 63 60 61 61 68 70 71 73 73 75 77 79 82 83 86 87 85 84 81 80 80 78 73 75 76 75 70 67 70 68 71 72 71 68 68 65 64 61 60 59 58 58 57 58 62
54 52 54 53 59 62 59 58 64 70 73 73 74 75 77 77 78 81 82 84 85 83 81 80 80 79 75 78 78 74 71 67 66 67 64 68 71 67 65 65 63 61 61 60 60 60 60 58 60
49 59 55 54 51 48 56 49 60 65 65 68 70 72 74 76 78 79 81 83 85 84 83 81 81 80 76 77 75 70 69 67 71 70 66 65 69 67 65 64 64 62 60 59 62 63 61 64 61
52 56 55 54 52 51 53 48 59 62 62 63 67 68 70 72 73 76 79 82 85 86 82 80 80 80 76 76 75 72 73 75 75 71 67 68 71 71 67 62 64 62 61 60 60 63 63 64 64
57 53 52 52 50 41 51 50 56 60 59 62 64 67 69 71 72 74 78 81 83 86 82 78 77 77 76 73 73 72 72 72 71 70 70 70 68 71 70 69 62 62 62 61 60 60 63 63 66
54 49 38 34 33 40 51 49 57 59 60 61 63 67 69 71 71 73 75 78 81 82 78 76 76 76 71 68 71 72 71 72 71 71 72 71 66 66 69 68 65 61 61 61 59 58 59 60 61
49 50 43 34 37 44 50 44 55 61 63 65 68 68 69 68 69 71 75 77 79 79 76 75 75 74 67 66 69 71 71 73 73 71 73 72 70 69 68 66 66 64 62 60 59 57 58 59 59
47 42 51 39 43 40 50 54 59 61 62 64 66 66 65 65 62 65 73 77 78 78 75 73 73 71 65 64 65 65 72 72 72 71 71 69 67 66 63 64 60 61 62 63 61 61 59 58 58
51 54 39 42 32 32 45 48 52 55 57 62 64 64 63 62 57 57 70 74 77 77 74 69 68 67 63 64 64 67 71 72 72 70 68 68 67 65 63 60 63 60 60 60 60 58 57 57 57
46 44 44 46 41 35 39 45 55 56 59 59 62 64 60 57 53 52 59 70 74 74 73 66 65 64 62 62 63 68 70 71 70 70 69 68 67 64 63 63 64 59 58 57 57 57 57 56 56
51 48 47 40 33 40 40 45 59 60 61 62 62 60 59 57 50 49 51 59 66 70 66 63 63 62 61 61 62 67 69 70 69 69 68 67 66 65 63 62 65 62 62 61 60 58 59 57 57

GFSSGP_sfc_temp_105.txt.gz
Temp
76 87 93 91 75 78 75 80 89 83 83 91 92 90 88 90 85 77 98 96 96 95 90 82 74 75 75 75 76 76 76 76 76 76 76 76 76 76 76 76 76 77 78 78 78 78 78 77 75
89 93 92 85 72 71 76 87 82 87 89 89 89 87 86 84 93 92 94 96 98 97 90 88 73 74 75 75 75 76 76 76 76 76 76 76 76 76 76 76 76 77 78 78 78 78 77 75 74
83 94 83 78 74 71 77 86 86 90 90 87 86 92 91 88 94 96 99 98 98 97 95 88 73 73 74 74 74 75 76 75 75 75 76 76 76 76 76 75 76 77 78 78 77 77 75 73 72
88 87 84 72 71 80 83 87 87 86 88 90 90 85 92 97 94 99 100 98 98 96 96 74 72 73 74 74 74 75 75 74 74 75 76 76 76 76 76 75 75 76 77 77 77 76 74 72 71
90 85 72 71 72 80 87 87 87 84 85 87 89 85 86 94 99 100 98 97 95 94 93 82 71 72 74 74 74 74 74 74 74 75 75 75 76 76 75 75 75 75 76 77 76 74 72 71 71
78 81 69 68 74 82 88 89 86 83 87 86 85 86 88 99 95 97 97 95 94 90 90 84 73 72 72 73 74 73 73 73 73 74 74 75 75 74 74 74 74 74 74 74 74 72 72 71 69
75 75 69 72 75 80 85 88 84 84 85 86 91 82 90 95 97 96 96 93 91 89 87 83 80 77 71 71 71 71 72 72 73 73 73 74 73 72 73 72 73 73 73 73 73 72 70 69 69
80 76 70 74 72 75 87 86 86 85 84 90 90 82 84 91 96 95 94 92 89 87 85 84 83 81 80 79 70 70 71 71 71 71 71 71 71 71 71 71 71 72 72 73 72 71 68 67 67
85 69 66 71 74 78 86 80 87 91 88 87 89 90 89 90 93 92 90 89 87 86 85 85 85 84 83 80 78 71 70 71 70 72 69 70 80 78 77 74 71 71 71 71 71 70 67 66 66
76 68 69 80 83 81 81 80 84 82 83 83 84 88 89 89 90 88 88 86 86 84 85 87 86 86 85 81 80 80 80 80 80 80 79 79 81 80 80 77 70 71 70 70 70 70 67 66 66
75 68 77 80 84 83 80 81 85 81 78 85 83 87 90 90 90 89 90 90 89 89 88 88 86 86 84 84 83 85 83 80 80 80 79 78 80 78 80 77 78 78 70 77 74 71 71 66 65
70 76 77 79 84 79 76 81 80 83 82 88 90 92 90 90 90 90 89 92 91 90 89 89 88 85 84 88 84 78 81 81 81 79 78 76 75 75 76 77 77 77 76 76 74 71 67 65 66
72 74 78 80 80 80 80 77 77 79 84 87 88 88 88 89 90 92 94 94 95 92 90 88 88 85 85 83 85 83 81 78 78 79 77 77 76 75 76 75 76 77 75 74 71 69 65 64 65
75 75 76 77 78 77 74 75 76 79 84 83 83 85 88 88 90 92 93 93 93 93 91 88 85 84 85 83 82 81 79 76 78 77 78 77 76 75 76 73 74 72 72 70 71 67 65 64 64
74 67 72 73 75 74 76 69 71 79 82 80 81 84 85 87 91 91 93 92 93 95 94 87 82 83 83 83 83 83 84 81 73 72 76 75 76 75 74 71 70 70 72 71 69 67 64 64 65
66 66 59 70 73 74 72 61 75 83 81 80 81 83 84 87 89 92 93 94 96 96 94 90 86 82 81 83 84 84 85 83 77 74 75 74 74 75 74 71 71 73 69 67 66 64 63 63 63
63 56 59 64 75 74 71 64 74 80 81 78 80 82 84 85 88 90 92 94 96 97 94 90 86 81 80 82 83 83 83 82 82 76 76 75 73 75 73 72 73 73 71 64 63 62 63 62 62
56 57 62 63 71 73 68 67 74 78 78 77 79 82 83 84 85 89 91 94 96 96 93 91 87 82 80 80 81 83 82 76 78 78 77 76 76 74 74 72 72 71 66 63 62 61 62 62 62
62 61 62 67 73 69 67 67 72 77 78 77 77 78 80 81 87 91 91 92 93 92 90 89 85 81 79 72 77 80 75 68 70 71 75 77 78 75 72 71 65 64 61 60 60 60 60 60 62
59 57 58 64 70 66 65 65 71 74 76 77 77 78 79 82 85 87 90 90 89 89 88 87 87 83 80 75 79 83 74 70 75 72 75 75 77 75 73 70 65 62 60 59 59 59 59 59 61
55 54 55 58 65 68 63 60 65 73 76 77 79 80 81 81 82 85 87 87 88 88 87 87 86 84 81 78 81 81 77 72 71 70 72 72 74 73 72 71 66 62 61 59 59 59 59 58 59
48 59 58 58 56 50 66 51 66 70 71 74 75 75 77 79 81 83 84 85 86 88 89 88 87 86 84 79 80 78 76 71 72 72 71 74 72 72 71 69 64 63 60 59 60 62 60 59 57
53 60 58 57 54 54 57 53 61 68 66 69 71 71 73 76 77 78 80 83 86 88 89 87 87 86 85 81 81 80 76 76 77 76 72 70 73 73 69 67 68 63 62 61 61 62 62 61 59
60 57 55 55 53 43 54 55 59 63 65 67 69 71 72 75 76 78 81 82 84 87 86 87 85 85 85 80 80 79 74 77 77 76 71 67 69 70 72 67 64 64 63 62 61 62 63 63 63
56 50 39 36 39 40 59 55 60 66 67 66 67 71 73 74 74 74 75 80 82 83 85 87 84 83 83 79 79 78 76 78 76 74 73 73 68 70 71 70 67 62 62 63 61 61 60 62 62
51 49 41 32 37 45 57 48 59 69 69 69 72 69 71 71 71 70 71 74 81 82 83 85 85 82 83 79 78 78 78 78 78 76 76 76 72 70 71 69 68 66 64 61 61 60 60 60 60
47 44 56 43 48 44 52 58 63 66 64 65 66 70 69 69 67 65 65 65 74 81 83 83 82 82 82 76 76 75 76 76 77 76 76 76 75 71 69 71 70 64 64 62 60 59 58 58 58
53 58 42 45 35 35 50 53 48 52 58 62 63 67 66 67 64 59 59 60 65 78 83 81 80 81 76 69 68 72 74 76 76 75 74 74 71 69 68 67 67 67 64 62 61 59 59 59 58
49 45 47 49 46 38 42 45 58 58 61 61 64 62 63 62 61 54 53 52 58 65 80 77 77 77 67 64 64 69 71 75 75 73 73 69 67 68 67 67 62 60 59 60 60 61 60 58 58
57 52 51 42 39 46 43 45 62 63 65 65 60 59 61 60 58 53 48 47 50 52 69 67 68 65 66 62 63 68 70 72 72 72 71 69 65 68 68 68 63 63 62 60 58 56 57 56 55

GFSSGP_sfc_temp_108.txt.gz
Temp
76 81 85 84 69 70 66 73 85 85 85 91 92 89 87 89 81 72 93 93 89 85 79 78 74 75 75 75 76 76 76 76 76 75 75 75 76 76 76 76 76 77 77 78 78 78 78 77 75
84 87 86 80 64 61 67 81 81 88 89 90 89 89 86 84 91 90 88 94 92 87 82 79 73 74 75 75 75 75 76 76 76 76 75 76 76 76 76 76 76 77 78 78 78 78 77 75 74
77 86 77 71 66 62 67 82 87 90 89 88 85 91 89 87 93 92 93 95 93 88 87 80 73 74 74 74 75 75 75 75 75 75 76 76 76 76 76 75 75 77 77 78 78 77 75 73 72
78 79 79 65 64 73 75 81 88 88 89 90 89 84 93 95 93 95 96 96 93 91 89 72 72 73 74 74 75 75 75 74 74 75 75 76 76 76 75 75 75 76 77 77 77 76 73 72 71
81 79 66 65 67 74 82 87 87 85 86 87 88 83 86 94 99 96 94 94 90 85 79 76 71 73 74 74 75 74 74 74 74 74 75 75 76 76 75 74 74 75 76 76 76 74 72 71 71
72 75 62 61 67 77 82 86 88 84 86 86 84 85 87 96 95 93 91 90 88 81 80 75 73 72 73 73 73 73 73 73 74 75 74 74 74 74 74 74 74 74 74 74 74 72 71 71 70
71 68 63 65 68 74 81 89 86 84 83 84 90 81 86 91 94 92 90 87 85 83 79 76 75 74 72 72 72 71 72 73 75 75 73 73 72 73 73 73 74 74 74 73 72 71 70 69 69
76 72 64 68 67 70 83 87 89 85 83 93 92 81 81 91 94 92 89 85 82 82 80 77 76 75 74 73 70 70 71 71 72 72 71 70 71 71 72 72 72 73 73 73 71 69 68 68 67
81 65 61 65 68 72 84 82 89 90 85 88 90 88 88 91 93 90 85 84 82 81 80 79 78 77 76 75 74 70 71 70 70 72 70 68 73 72 72 72 71 72 72 71 70 68 67 66 66
71 64 64 74 77 76 81 83 83 82 82 82 85 89 89 90 89 86 83 81 80 79 80 81 80 79 78 80 75 74 74 74 73 74 73 73 73 73 76 73 70 70 70 70 68 67 66 67 66
71 64 72 76 79 81 80 82 85 79 77 83 82 84 88 88 86 86 87 84 82 82 81 82 80 79 79 78 77 77 76 75 74 74 73 72 73 72 71 70 70 70 69 69 68 66 67 65 65
65 72 74 76 80 79 78 83 79 81 81 87 88 89 88 86 85 86 86 87 85 84 83 83 82 79 78 79 78 78 77 76 75 74 73 71 71 70 70 69 70 70 70 68 68 67 65 64 64
67 71 75 78 78 78 80 77 77 78 83 88 89 88 86 86 86 88 89 88 88 85 84 83 82 80 79 78 78 76 75 75 75 74 74 72 70 69 70 69 70 70 69 67 66 66 64 64 64
71 72 73 77 77 78 74 75 77 79 84 83 84 83 85 85 86 87 87 86 86 87 84 82 82 80 80 78 77 76 76 74 73 73 73 73 71 69 69 68 68 69 68 68 66 65 64 63 64
71 65 70 73 75 73 77 69 70 78 81 80 81 82 83 84 86 85 86 85 86 88 88 81 80 80 78 78 77 76 75 74 72 72 73 72 72 70 69 68 68 68 67 67 66 65 64 63 63
63 64 57 68 72 74 72 60 73 79 78 77 79 80 81 83 84 87 87 88 90 90 87 82 82 79 78 77 78 78 77 75 73 71 71 72 72 71 69 68 67 67 66 65 65 64 63 63 62
59 52 56 60 72 71 69 62 73 79 78 77 79 80 80 82 85 86 87 88 90 90 86 81 78 78 76 77 77 77 76 75 73 71 71 71 72 71 69 68 68 67 66 65 64 64 64 62 62
50 53 56 57 67 69 66 65 72 77 77 76 78 80 80 81 83 86 86 88 90 88 83 81 78 77 76 77 77 77 75 74 74 73 72 72 72 70 70 68 67 67 65 63 63 63 63 62 62
58 57 57 62 69 66 64 66 71 75 75 75 77 78 78 80 84 85 84 82 81 81 81 81 78 76 76 75 75 75 73 71 70 72 73 71 72 71 69 67 67 66 64 64 62 62 61 61 63
55 54 55 62 67 66 64 65 71 73 74 76 77 76 76 78 80 83 83 82 79 79 81 81 80 77 77 76 76 76 74 70 70 68 69 71 71 70 69 66 64 62 61 61 61 60 59 59 61
55 53 53 54 62 66 63 59 64 71 73 76 77 79 80 78 78 81 82 81 79 78 79 81 81 78 77 75 75 75 71 68 67 68 68 70 70 70 68 66 63 61 61 59 59 60 59 57 60
49 61 59 56 52 46 63 46 60 67 68 72 75 75 77 78 78 79 79 78 78 78 79 80 81 80 78 74 73 72 69 65 67 68 69 69 69 69 68 66 63 61 60 59 59 61 59 59 57
55 61 56 55 51 50 53 49 58 67 66 70 71 72 73 74 75 75 77 78 79 77 76 77 79 82 79 75 74 73 71 70 68 70 68 67 68 68 69 66 64 61 60 60 60 60 59 59 59
63 55 53 52 49 38 48 50 53 59 65 67 70 71 72 72 72 72 73 75 77 77 77 75 78 80 80 75 73 73 72 71 69 69 66 66 67 67 67 66 64 62 61 59 60 61 60 59 59
56 48 33 30 31 33 52 49 54 62 67 68 67 67 68 68 67 67 67 68 70 70 72 76 78 80 79 76 73 74 73 72 70 69 68 65 66 66 66 66 64 63 62 60 61 61 61 60 59
50 47 34 29 30 37 51 44 54 65 69 70 69 69 68 66 65 64 63 63 63 66 68 61 79 80 79 77 74 74 75 73 73 72 69 67 66 65 66 66 64 63 63 61 61 60 60 60 60
48 41 51 38 44 38 45 51 55 63 65 66 66 66 64 63 62 59 58 58 56 60 61 61 66 80 79 77 74 73 73 72 73 70 70 69 67 67 65 66 65 63 63 62 61 59 59 60 59
50 54 37 37 29 28 40 42 41 48 55 61 59 59 60 60 58 56 54 52 52 57 57 57 71 78 77 76 74 73 72 73 72 70 68 68 67 66 64 64 65 64 62 61 60 59 59 58 58
39 40 43 45 42 32 35 35 47 48 52 55 56 57 56 55 55 54 51 49 48 52 52 53 72 75 72 71 69 69 70 70 69 69 68 67 64 64 63 63 63 61 61 60 59 58 58 57 57
46 43 43 37 39 43 35 33 47 51 55 55 53 53 52 52 52 52 49 46 44 47 48 50 58 63 65 67 65 65 66 67 66 66 67 64 63 64 64 63 61 61 60 60 59 58 58 57 57

GFSSGP_sfc_temp_114.txt.gz
Temp
62 64 64 64 50 44 38 48 56 60 64 72 76 73 72 69 70 61 73 77 74 73 74 74 73 74 75 75 75 74 75 75 75 75 75 75 76 76 76 76 76 77 77 78 78 77 76 76 74
64 70 64 55 43 35 40 53 57 63 72 76 76 76 71 69 75 72 72 75 75 73 73 73 73 74 74 74 74 74 75 75 75 75 75 75 75 76 76 75 75 76 77 78 78 77 76 75 73
67 71 56 49 40 37 42 56 59 67 74 73 74 75 74 71 76 75 77 75 74 72 73 73 72 73 74 74 74 74 74 74 74 74 75 75 76 76 75 74 74 76 77 78 78 77 75 73 72
64 61 56 45 43 47 53 64 66 69 74 75 75 68 77 80 78 77 77 75 73 72 73 71 71 72 73 74 74 74 73 73 73 74 75 75 76 76 75 74 74 76 77 77 77 75 73 72 71
60 54 44 40 45 50 62 66 69 68 70 74 74 70 72 79 81 78 75 76 72 71 71 71 70 72 73 74 74 73 74 72 73 74 74 74 75 75 74 74 74 75 76 76 75 73 72 71 71
54 52 40 42 51 56 60 66 70 69 72 73 73 70 72 78 77 77 77 75 74 70 70 71 71 72 72 73 73 72 73 73 72 73 73 74 74 74 74 73 73 74 74 73 73 72 71 71 71
51 45 43 44 47 53 61 68 68 71 70 70 76 70 70 76 79 78 75 73 71 71 69 69 70 71 71 70 70 70 71 71 71 72 72 72 72 72 73 73 73 73 73 72 72 71 70 71 70
55 49 42 49 52 52 62 69 71 71 71 82 79 69 66 75 74 74 72 70 69 69 68 68 68 69 69 70 69 69 70 70 71 71 71 70 71 71 71 71 72 73 73 72 71 70 70 70 68
58 44 47 50 50 56 65 63 68 71 72 74 77 72 77 76 76 72 69 68 67 68 67 68 68 67 67 68 70 69 70 70 70 71 71 68 69 69 70 70 70 71 71 71 70 69 68 67 67
52 45 51 56 61 60 64 66 69 66 67 71 69 74 76 76 74 71 68 67 67 66 66 68 67 67 66 70 68 68 70 69 69 69 68 68 67 68 70 69 69 70 70 69 69 68 67 66 64
51 51 59 61 60 62 63 63 66 63 64 68 68 71 74 74 73 71 71 70 70 69 68 68 67 67 67 68 67 67 67 67 67 67 67 67 67 67 66 65 67 66 68 66 66 66 64 63 62
48 58 60 61 63 62 61 61 64 61 67 73 68 72 74 74 72 72 71 72 71 69 70 69 69 68 68 68 67 67 67 66 67 67 67 67 66 65 65 65 65 64 64 65 66 65 62 62 63
51 56 60 62 63 64 66 63 64 66 70 74 73 73 70 71 73 74 75 74 73 71 71 70 71 69 69 68 67 67 67 67 67 66 67 67 66 66 65 64 64 64 64 64 63 62 62 61 62
55 56 56 60 60 62 62 63 64 68 70 71 71 69 69 71 70 68 69 73 72 74 73 72 71 71 71 69 68 68 68 67 67 67 67 67 66 65 65 64 64 64 64 64 63 62 61 60 60
55 50 55 57 59 58 62 56 59 69 70 69 71 69 69 70 71 71 73 70 74 75 75 73 72 72 71 71 70 69 69 69 67 67 67 67 67 65 65 64 64 64 64 63 62 61 60 59 60
47 47 41 54 56 60 56 48 62 69 68 66 67 68 68 69 70 71 71 71 69 76 74 74 76 72 72 72 71 71 69 69 68 67 67 67 67 66 64 64 64 63 64 63 62 62 61 60 61
40 35 40 45 55 56 53 51 62 67 67 68 66 66 67 67 67 69 72 71 72 72 76 74 74 72 72 73 71 71 69 69 68 66 67 67 67 66 65 64 63 63 63 63 63 62 63 61 60
34 36 39 40 47 54 51 52 60 62 64 67 68 63 65 66 69 72 70 72 72 72 72 75 74 73 73 73 69 68 67 66 67 67 66 66 67 66 65 64 63 64 64 62 62 62 63 62 61
42 39 38 44 52 50 50 52 58 61 64 64 64 63 62 65 71 75 75 78 69 69 65 73 73 73 73 71 67 66 66 65 65 66 66 65 65 66 65 64 63 63 64 64 63 62 61 60 62
41 38 37 45 51 50 50 47 51 56 57 60 65 63 64 62 65 69 68 69 68 67 64 71 73 72 73 72 72 69 68 64 65 64 65 66 65 65 64 64 63 63 62 62 63 62 60 61 61
41 38 38 39 47 51 50 43 48 56 60 64 66 67 66 68 64 62 60 59 60 60 60 65 71 72 73 74 68 63 62 62 60 62 64 64 65 65 65 64 63 62 62 63 62 62 61 59 60
33 46 45 43 40 32 47 30 43 51 55 61 63 62 59 58 58 58 57 56 55 56 61 63 65 69 73 73 69 66 66 64 65 65 64 64 65 64 64 63 62 62 62 62 61 62 61 60 58
39 44 45 44 39 40 41 33 38 49 52 57 57 56 55 54 53 52 52 53 52 53 54 58 60 62 67 68 70 68 68 69 62 63 62 64 64 64 64 62 61 60 59 58 59 60 60 60 59
49 43 45 39 35 28 37 35 36 44 50 54 53 52 51 50 49 49 50 51 50 50 51 53 54 56 59 62 66 66 66 64 62 62 62 62 63 61 62 62 61 60 58 57 58 60 60 60 60
43 35 21 25 24 26 42 36 40 50 50 49 47 47 47 47 46 45 44 45 47 47 48 51 51 51 55 56 62 66 67 64 63 63 64 62 61 61 62 62 60 58 58 58 59 59 59 59 59
40 38 27 22 23 28 44 33 42 48 49 49 47 45 45 44 44 44 44 43 44 46 47 48 50 51 54 53 56 66 68 64 65 63 64 63 63 63 62 62 61 59 58 59 58 58 59 59 59
38 33 42 32 33 28 33 39 44 45 43 43 42 42 40 40 41 41 42 42 42 44 45 47 48 50 53 56 60 64 66 65 64 64 63 63 63 63 61 62 60 58 58 59 58 58 58 58 59
41 46 30 30 21 18 31 31 32 36 36 38 39 39 40 40 40 40 41 42 43 44 45 47 47 47 50 53 59 64 65 66 65 64 62 62 62 62 61 61 61 60 60 59 59 58 59 58 58
38 38 36 36 31 22 27 26 34 32 35 33 37 38 39 40 40 40 41 42 44 44 45 45 45 45 47 50 56 62 65 65 64 64 63 62 61 61 61 61 61 60 60 59 59 59 59 58 58
40 39 40 27 28 34 30 26 35 32 35 35 35 36 38 39 39 39 40 41 41 42 42 42 43 43 45 48 51 59 60 60 62 63 63 62 62 62 61 60 61 61 60 59 58 58 58 58 57

GFSSGP_sfc_temp_117.txt.gz
Temp
61 62 62 62 50 42 35 45 49 55 60 65 68 68 67 66 67 60 70 74 73 73 73 73 73 74 74 75 75 75 75 75 75 75 75 75 75 75 75 75 76 77 77 78 77 77 77 76 75
62 67 62 53 42 34 38 49 53 57 66 69 71 71 68 68 72 69 70 73 75 73 73 73 73 74 74 74 74 75 75 75 75 75 75 75 75 75 75 75 75 76 77 77 77 77 76 75 74
64 67 55 47 37 39 40 51 56 62 68 67 67 70 70 69 72 71 73 74 73 72 73 73 73 73 74 74 74 74 74 74 74 75 75 75 75 75 75 74 74 75 77 77 77 77 75 73 72
62 59 53 42 41 43 48 55 62 65 68 68 67 66 74 77 74 75 74 73 72 71 72 71 71 72 73 74 74 74 73 73 73 74 75 75 75 75 75 74 74 75 77 77 77 75 73 72 71
57 52 43 37 41 46 52 61 62 63 65 68 67 66 69 73 77 73 72 73 70 70 70 71 70 72 73 74 74 73 73 72 73 73 74 75 75 75 74 73 74 75 75 75 74 73 72 71 71
52 49 37 39 50 51 54 62 63 64 66 68 68 66 68 75 73 73 72 71 71 69 70 70 71 71 72 73 73 72 71 72 72 73 73 74 74 73 73 73 73 73 74 73 72 72 71 71 71
48 43 39 42 45 48 57 62 60 64 64 66 71 66 67 68 75 73 70 69 69 69 69 69 70 71 70 70 70 70 71 71 71 72 72 72 72 72 73 73 73 73 73 72 72 71 70 70 70
52 46 39 44 50 50 61 64 67 65 65 73 72 63 62 70 72 70 68 66 66 67 68 68 68 70 70 70 69 69 70 70 70 71 71 70 70 71 71 71 72 72 72 72 71 70 70 70 68
54 43 45 46 46 51 61 58 63 66 65 67 71 69 72 72 71 68 66 65 65 66 66 67 68 68 69 71 70 69 70 70 69 70 70 68 69 69 70 70 70 71 71 70 70 70 69 67 66
49 39 48 53 57 57 60 62 63 63 62 64 67 72 70 71 70 66 66 64 64 65 65 66 67 67 67 70 71 71 71 69 68 69 69 69 68 68 69 69 69 70 70 69 69 68 68 66 64
48 49 54 57 57 56 54 57 60 59 60 62 64 69 66 70 69 68 68 68 67 67 66 66 66 66 66 68 69 69 70 69 66 66 67 67 67 66 66 66 67 67 68 66 66 66 64 63 62
46 54 55 57 61 59 55 56 58 59 63 67 65 67 67 67 69 69 68 69 67 66 68 68 68 67 67 66 68 68 69 69 68 67 66 67 66 65 64 65 64 64 64 64 64 65 62 62 62
47 52 56 58 58 58 60 58 58 61 68 68 71 70 70 68 70 72 73 72 69 67 69 68 68 67 67 66 66 66 67 68 68 68 67 68 68 66 64 64 64 63 63 66 65 64 61 61 61
51 51 53 55 55 55 54 56 57 62 67 67 68 67 68 68 68 66 68 68 68 70 69 69 67 67 68 67 66 66 66 66 65 66 67 66 67 66 65 64 63 63 63 62 64 62 61 60 60
51 44 48 51 53 53 55 50 53 63 65 65 67 71 66 68 72 70 69 68 70 71 72 68 68 68 68 68 67 66 66 66 66 65 65 66 66 65 65 64 63 63 63 62 61 60 59 59 59
43 42 35 48 50 53 51 43 57 63 61 63 64 69 68 68 67 66 72 72 69 71 70 71 72 69 68 68 68 68 67 67 67 66 66 66 66 65 64 64 64 63 62 62 61 62 61 58 58
36 31 35 41 50 50 48 45 56 59 61 61 64 66 69 66 65 66 67 67 71 73 73 71 71 69 68 69 68 68 67 67 67 67 66 66 66 65 64 64 63 63 63 62 62 62 62 61 60
31 31 33 34 43 46 45 46 54 58 59 60 62 66 70 70 67 70 69 69 70 70 73 73 71 71 70 70 67 66 64 66 66 66 67 66 67 66 64 63 62 63 63 63 62 62 62 62 61
40 37 35 39 46 43 43 44 49 55 54 56 61 64 65 68 70 70 72 71 65 62 64 70 69 70 69 68 65 65 65 65 65 66 66 66 67 66 64 63 62 63 64 63 63 62 61 61 61
39 35 34 40 46 44 41 42 50 52 55 57 56 57 61 68 69 64 60 59 55 56 58 63 69 71 70 71 70 69 68 65 65 63 64 66 65 65 64 64 62 63 64 63 62 62 61 61 61
37 35 36 35 42 44 40 37 44 53 56 59 59 61 61 64 58 56 55 51 51 52 53 58 64 69 70 72 70 63 62 62 61 62 64 65 65 64 65 64 63 63 63 63 63 63 61 60 60
31 42 43 38 36 27 40 26 40 47 51 55 57 48 49 51 52 51 50 48 48 49 51 54 57 61 67 68 67 64 65 63 65 66 67 65 65 64 64 64 62 62 63 62 63 63 62 61 59
35 44 43 38 34 32 35 28 35 45 46 47 45 46 45 45 46 46 46 48 48 48 48 51 53 55 59 63 67 65 63 64 61 62 64 63 63 64 64 63 62 62 62 64 62 62 61 61 60
45 41 40 38 33 21 33 33 34 37 41 42 43 42 43 43 43 43 46 47 46 46 47 50 51 52 55 56 58 65 65 63 60 60 61 62 62 62 63 63 62 62 62 60 60 60 61 60 59
40 35 23 18 18 23 38 33 37 40 41 40 39 39 40 40 41 40 40 42 44 44 45 48 50 50 52 54 55 58 65 64 64 62 62 62 62 62 62 62 62 61 60 59 58 60 59 59 59
36 35 26 20 23 27 40 30 34 40 41 43 42 41 41 40 40 40 41 42 42 43 44 45 47 49 51 52 54 56 59 65 65 67 65 63 62 63 63 63 62 61 59 59 60 59 58 58 58
37 31 41 30 34 26 34 35 37 38 37 34 37 38 38 39 40 40 41 42 43 43 43 44 46 47 48 49 51 53 57 63 63 63 63 64 63 63 61 63 61 60 59 60 59 58 57 58 58
43 42 29 29 24 21 28 29 27 31 32 33 33 34 37 38 38 39 40 41 42 43 43 43 45 45 46 47 50 53 57 61 64 63 62 62 62 62 61 62 61 59 59 59 59 57 58 57 58
37 33 35 38 34 25 23 25 33 30 33 31 32 34 35 36 37 38 39 40 41 43 42 42 43 43 44 45 47 50 52 61 64 62 62 62 61 61 60 62 61 60 59 58 58 57 58 57 57
40 37 37 27 28 32 27 23 34 32 33 34 32 33 35 36 37 37 38 38 39 39 41 41 41 41 43 44 46 47 49 52 62 61 61 60 60 61 61 61 61 60 60 59 58 57 58 57 57

GFSSGP_sfc_temp_120.txt.gz
Temp
60 60 61 60 48 41 34 45 47 51 52 61 63 64 65 65 65 58 69 72 71 72 72 73 73 74 74 75 75 75 75 76 76 75 75 75 76 76 76 75 76 77 78 78 78 77 78 77 75
61 65 60 50 42 34 38 46 48 54 61 64 67 67 64 66 71 68 68 72 73 72 72 73 73 74 74 74 74 75 76 75 75 75 75 75 75 75 75 75 75 76 77 78 77 77 77 75 74
63 64 55 47 35 38 41 48 51 58 64 61 64 66 67 68 71 70 72 72 73 72 72 72 72 73 74 74 74 74 75 74 75 75 75 75 75 75 75 74 74 76 77 77 78 77 75 73 72
60 58 52 42 38 42 47 53 56 60 64 63 62 62 71 75 73 73 72 72 72 71 72 71 71 72 73 74 74 74 74 73 74 74 75 75 75 75 75 74 74 75 77 77 77 75 73 72 71
55 50 42 34 38 45 51 57 57 59 60 62 63 62 66 73 73 71 70 72 71 70 70 71 70 72 73 74 74 73 73 73 73 74 74 75 75 75 74 73 74 75 75 76 74 73 72 71 71
51 48 37 36 42 48 53 59 59 59 61 64 63 61 66 70 70 68 70 70 70 69 69 70 71 72 72 73 73 72 72 72 72 73 73 74 74 73 73 73 73 73 74 73 72 72 71 71 71
47 42 36 36 41 46 54 59 57 60 60 61 66 60 66 69 70 69 67 66 67 68 68 68 70 71 71 70 70 70 71 71 72 72 72 72 72 72 72 73 73 73 72 72 72 71 70 70 70
49 45 34 39 43 45 58 60 63 61 62 69 67 60 62 67 67 67 66 65 65 66 67 68 68 69 69 70 69 69 70 70 70 71 71 70 70 71 72 72 72 72 72 72 71 70 70 69 68
50 40 37 41 45 47 58 56 61 62 62 63 68 65 70 70 67 65 63 63 64 65 66 68 69 70 71 71 70 69 70 69 69 70 70 68 70 70 71 70 70 71 71 71 70 70 69 67 67
47 36 44 52 53 50 57 57 58 58 59 60 64 67 68 67 66 65 64 63 63 64 66 68 69 70 70 72 71 70 71 70 70 70 69 68 67 68 69 69 69 70 70 69 69 69 67 66 65
44 43 49 51 53 53 50 54 56 55 52 59 60 63 63 66 65 64 66 66 66 66 66 67 68 69 69 71 71 71 72 69 67 67 67 67 66 66 66 66 68 67 69 66 67 66 66 63 63
42 48 50 51 54 51 50 53 54 57 57 64 64 66 64 65 66 66 66 66 64 64 66 66 67 66 68 70 71 70 70 70 68 66 66 68 67 66 64 65 65 65 65 65 64 66 63 62 62
43 46 50 51 52 52 55 51 53 56 63 66 66 67 66 64 67 70 71 68 66 63 65 65 66 66 66 66 69 70 70 69 70 67 66 69 68 67 64 63 64 64 64 64 64 65 61 61 61
47 47 47 49 49 50 51 52 52 56 59 62 63 62 65 65 65 68 69 67 66 66 66 66 66 66 66 65 66 68 69 69 69 70 69 69 68 67 66 63 63 63 64 66 66 65 61 61 61
48 42 47 47 45 46 50 45 48 59 60 60 61 64 66 67 65 67 70 70 69 68 69 66 66 66 65 66 65 65 66 67 67 67 69 68 69 67 66 65 63 63 63 64 64 62 60 59 60
41 39 33 44 47 48 43 39 52 56 55 56 59 62 64 67 65 66 71 72 69 70 68 68 69 66 65 66 65 65 65 65 65 65 66 68 67 66 64 65 63 62 62 62 61 61 61 59 58
33 29 32 38 46 45 42 39 49 54 55 56 58 59 59 65 63 65 66 72 75 70 70 68 68 66 66 66 66 65 64 64 64 64 65 66 66 65 65 65 64 62 63 62 62 62 62 60 59
26 28 28 31 38 43 40 39 47 52 52 52 55 58 58 62 67 70 65 65 70 72 72 71 70 69 67 67 66 65 65 65 65 65 65 65 66 65 64 64 63 63 63 63 62 62 62 62 61
36 34 32 37 44 41 39 39 43 49 50 50 52 52 55 58 67 63 59 57 57 59 61 66 68 68 68 68 65 66 65 66 66 65 66 65 66 65 64 64 62 63 64 63 63 62 61 60 61
35 32 31 38 43 42 39 39 43 47 48 51 53 55 57 57 57 56 53 53 51 50 51 55 63 67 67 69 68 68 67 67 67 66 66 66 66 65 65 64 63 63 63 63 63 62 60 61 61
34 32 33 33 39 42 39 35 39 47 50 52 56 54 50 49 49 50 50 49 47 47 47 51 53 63 67 69 68 63 63 62 63 63 64 65 66 65 65 64 64 63 64 63 63 63 62 60 60
28 39 38 36 33 25 37 23 36 43 46 42 42 41 41 41 43 45 46 47 44 45 48 49 52 55 62 67 67 66 65 65 66 66 66 66 66 66 65 64 63 64 65 64 63 64 63 61 59
34 41 38 36 33 33 31 23 31 41 38 39 40 40 40 40 39 39 41 44 46 45 46 48 54 55 56 58 65 64 64 64 62 63 64 65 63 64 65 64 63 63 64 64 62 63 63 62 61
42 37 37 36 33 23 31 28 26 33 37 37 39 39 39 40 41 42 43 44 44 46 46 48 51 53 54 56 56 60 63 61 61 61 62 63 63 63 63 63 63 63 63 63 63 63 62 61 61
36 30 19 17 16 22 37 28 27 33 37 37 37 37 39 40 40 40 41 42 43 44 45 47 48 49 52 53 53 55 57 60 62 62 63 62 62 62 62 63 63 63 63 63 63 62 61 61 61
32 31 23 19 22 24 37 25 29 35 36 37 38 38 39 38 39 39 41 41 42 43 44 45 46 47 48 50 51 54 55 57 61 65 62 63 62 63 64 64 64 64 63 62 61 61 61 61 60
34 29 39 30 31 27 31 30 36 37 34 33 34 35 36 36 38 38 40 41 41 42 42 43 44 45 46 47 49 51 52 55 58 62 63 63 63 63 64 64 64 63 62 61 60 60 59 59 59
40 43 29 28 21 20 27 25 24 29 30 31 31 32 34 36 36 38 39 39 41 42 42 43 43 43 45 46 47 49 50 52 53 59 64 62 62 61 62 63 63 63 61 60 60 60 59 58 58
34 32 34 35 32 23 21 23 31 29 30 29 31 32 32 34 34 36 38 39 40 41 41 41 41 41 42 44 45 46 47 49 51 59 64 62 61 61 61 62 62 61 60 60 59 59 58 57 57
39 36 35 25 26 29 23 20 33 31 31 32 31 32 33 33 32 33 35 38 38 39 39 39 39 39 41 43 43 44 45 46 47 49 54 61 60 60 60 61 62 61 60 59 59 57 57 57 56

GFSSGP_sfc_temp_123.txt.gz
Temp
71 72 75 74 65 61 54 60 60 63 65 72 72 74 75 77 73 70 79 80 78 80 80 78 74 74 74 75 75 75 76 76 76 76 76 76 76 76 76 76 76 77 78 78 78 78 78 77 76
72 73 73 66 60 56 59 60 61 67 71 71 73 74 73 75 81 83 78 80 80 81 80 80 73 74 74 74 75 75 76 76 76 76 76 76 76 76 76 75 75 76 77 78 78 78 78 76 74
72 72 71 64 55 57 60 61 67 67 70 70 72 77 76 77 81 81 81 80 80 81 81 79 73 73 74 74 74 75 75 75 75 75 76 76 76 76 76 75 75 76 77 78 78 77 75 74 73
72 72 65 58 54 57 60 64 65 69 74 72 73 73 78 83 80 82 80 80 79 80 81 74 72 72 73 74 74 74 74 74 74 74 75 76 76 76 75 74 75 76 77 78 78 76 74 72 72
69 66 58 52 53 56 61 64 67 67 69 71 71 71 74 84 80 77 78 79 78 78 79 77 71 72 73 74 74 74 73 73 73 74 74 75 75 75 74 74 74 75 76 76 75 73 72 71 71
65 62 54 52 54 58 64 69 67 67 70 71 70 69 75 82 80 76 77 77 78 76 77 77 72 72 72 73 73 72 72 72 73 73 74 74 74 74 73 73 74 74 74 73 73 72 71 71 71
62 58 53 51 53 57 64 70 68 70 69 70 75 70 78 83 78 75 75 75 75 75 75 75 76 75 71 70 71 70 71 71 72 72 72 72 72 72 73 73 73 73 73 72 72 71 71 71 70
61 60 50 53 55 57 65 67 70 68 69 76 77 70 71 78 79 74 74 74 74 74 75 74 75 76 76 76 69 69 70 70 71 71 71 70 70 71 72 72 72 72 72 72 71 71 70 70 69
61 55 50 54 55 59 65 62 68 71 69 70 73 75 76 75 73 73 72 71 72 72 74 74 75 75 76 75 74 70 70 70 70 71 70 70 79 78 77 74 71 71 71 71 71 70 69 68 68
59 51 53 60 61 60 61 61 62 63 65 65 69 74 76 78 73 72 72 72 71 71 71 74 75 75 75 76 74 75 76 76 77 77 76 77 78 78 78 74 70 70 70 70 70 69 67 69 73
55 52 56 58 60 59 58 59 64 61 59 65 64 69 74 75 78 76 74 74 73 75 74 73 74 75 75 75 75 74 76 73 74 74 74 75 76 75 77 76 77 78 72 77 74 74 75 70 69
50 53 55 57 57 56 54 59 58 60 60 67 68 70 71 73 74 77 77 76 75 74 74 74 74 73 73 76 74 74 73 72 71 72 72 72 72 73 74 75 74 77 77 75 76 76 69 74 73
50 52 54 56 56 57 58 56 56 57 63 67 69 69 69 72 74 77 79 81 78 75 74 73 71 71 71 72 74 74 71 71 72 71 72 72 72 71 73 74 73 74 75 75 74 73 74 74 73
52 52 53 55 55 55 53 56 56 61 66 66 67 68 71 71 74 76 76 77 77 78 75 74 72 72 72 71 73 72 72 72 72 72 72 72 73 71 70 71 72 71 74 74 74 73 72 74 73
52 47 52 55 54 53 55 52 53 61 63 62 64 66 68 70 73 73 76 77 79 80 78 73 72 73 72 71 72 72 72 72 72 72 72 71 72 72 69 69 71 73 71 71 71 69 68 72 71
47 47 40 49 53 53 53 43 56 61 58 56 59 62 65 68 71 74 76 78 81 81 78 75 74 72 72 73 72 72 71 71 71 71 71 71 71 71 69 67 69 71 69 67 66 65 65 70 71
41 38 40 44 53 52 49 44 53 58 56 55 57 60 62 66 70 73 75 77 80 80 79 76 74 73 72 73 73 73 71 70 69 69 69 70 70 70 68 68 69 69 69 67 65 64 66 65 65
37 37 40 39 47 49 45 44 52 55 55 55 56 58 60 63 67 72 74 77 77 80 78 78 75 74 73 73 73 72 71 72 71 71 72 70 70 68 69 69 68 69 67 67 67 67 65 66 67
43 40 37 42 48 44 43 44 48 53 54 54 56 57 59 62 67 68 63 63 67 65 70 76 73 74 73 72 70 71 69 70 70 73 74 73 72 69 69 69 68 67 67 66 66 65 63 63 64
40 36 36 42 47 45 44 42 48 52 52 55 55 56 58 60 64 62 57 56 56 57 59 64 70 73 72 74 74 74 73 72 71 71 72 73 72 71 71 69 68 67 66 66 65 64 62 63 63
39 36 36 36 43 46 43 41 45 52 55 50 48 48 47 47 48 50 52 52 53 53 54 58 62 65 71 74 74 71 71 69 67 68 68 69 72 72 72 70 69 67 67 65 65 64 65 62 63
34 42 40 38 37 30 43 28 42 46 47 45 42 42 42 42 46 47 48 49 50 51 53 57 61 63 65 68 71 69 69 68 70 69 68 68 71 72 72 69 69 68 67 67 66 67 67 67 63
37 44 41 40 36 35 38 32 40 42 37 36 38 39 40 42 43 43 45 47 49 49 51 55 59 59 59 63 65 68 68 72 74 71 68 67 68 69 70 68 67 67 67 68 66 67 67 67 67
45 40 41 40 36 26 36 32 34 30 31 34 36 37 38 40 41 42 44 46 46 48 50 53 54 54 56 57 57 58 66 69 67 69 68 68 67 66 66 66 66 66 65 66 66 68 69 67 66
41 35 28 27 25 27 40 34 29 33 33 34 33 35 37 38 39 40 40 42 43 44 45 48 49 49 52 53 53 54 55 57 61 69 68 67 66 64 65 65 65 65 65 65 66 65 68 67 68
37 37 30 21 25 29 40 28 28 34 35 35 33 34 35 36 38 38 40 40 41 42 43 44 46 46 49 49 50 52 54 55 57 60 63 66 65 66 67 65 66 67 65 65 65 65 65 65 65
37 34 42 32 34 28 32 29 34 35 32 32 32 33 32 33 35 37 39 41 42 42 42 42 44 45 47 47 50 50 52 52 53 55 58 63 67 68 68 67 66 67 67 65 64 63 63 63 63
43 46 32 34 22 22 28 25 24 29 29 31 31 30 32 33 33 35 37 39 41 42 42 43 43 42 44 45 46 47 48 50 51 53 56 60 64 66 67 67 68 69 68 64 63 62 63 61 62
37 36 38 38 34 26 24 23 30 29 30 29 30 31 31 32 32 33 34 37 40 41 41 41 41 42 42 42 44 45 45 47 48 49 50 52 63 64 65 67 67 67 65 63 61 61 62 61 61
43 39 40 31 30 33 28 22 32 31 31 31 30 31 31 31 32 32 32 33 35 37 39 39 39 40 41 42 42 42 44 44 45 46 47 48 50 63 63 64 65 67 65 63 60 60 61 60 59

GFSSGP_sfc_temp_126.txt.gz
Temp
78 88 91 86 74 74 71 73 80 77 77 83 83 81 82 85 80 78 94 93 89 93 90 82 74 75 75 75 75 75 76 77 77 76 76 76 76 76 76 76 76 77 78 79 79 79 79 78 77
88 85 88 85 70 68 74 79 75 80 82 83 83 83 81 81 90 93 95 91 91 94 90 88 73 74 75 75 75 75 76 76 76 76 76 76 76 76 76 76 76 77 78 79 79 79 78 76 75
84 85 81 77 72 69 73 75 79 79 80 81 80 85 84 84 91 92 95 90 92 93 92 88 73 73 74 74 75 75 75 75 75 76 76 76 76 76 76 75 75 76 77 78 79 78 76 74 73
84 84 81 69 69 74 73 77 78 78 82 82 81 80 87 93 90 92 93 90 91 92 93 76 72 73 74 74 75 75 74 74 74 75 76 76 76 76 75 74 75 76 77 78 78 76 74 73 72
86 82 71 67 70 75 76 80 79 77 79 80 81 78 81 91 94 93 89 88 89 90 91 81 71 72 73 75 75 74 74 73 74 75 75 75 76 75 75 74 75 75 76 77 76 74 73 72 72
76 78 66 66 71 73 76 82 79 77 79 81 79 79 82 93 91 90 88 88 89 87 87 84 73 72 73 73 73 73 73 73 73 74 74 75 74 74 74 74 74 74 75 75 73 73 72 72 71
72 71 67 69 67 69 74 82 77 77 79 78 82 76 85 89 89 88 88 85 85 86 84 84 82 78 71 71 71 71 71 72 72 72 73 73 72 72 73 73 74 74 74 73 72 72 71 71 71
77 72 66 68 65 68 76 76 79 77 75 82 83 78 77 84 88 90 87 84 83 83 83 83 83 82 82 81 70 70 70 71 71 72 71 71 71 72 72 72 73 73 73 72 72 71 70 70 69
75 66 64 68 66 70 74 70 80 79 77 79 79 81 85 87 90 89 87 84 84 82 83 84 84 85 84 84 80 71 70 70 70 72 70 71 83 81 79 77 71 72 72 72 71 70 70 69 68
70 66 67 71 71 68 70 69 72 72 74 75 77 81 84 86 86 84 85 85 84 82 83 85 84 85 85 87 84 82 82 83 82 82 80 82 84 84 84 78 70 70 70 70 70 70 68 70 84
68 63 69 68 69 67 66 68 74 69 68 75 72 75 80 81 82 83 85 86 87 86 86 85 84 84 84 86 86 83 86 85 83 82 82 82 83 83 84 84 81 82 73 82 77 76 82 83 84
60 65 65 68 67 65 64 69 66 69 69 75 76 77 78 79 80 82 84 86 88 88 85 86 85 83 83 87 86 83 84 78 79 83 82 82 82 81 81 83 83 82 84 83 83 83 82 80 81
61 64 64 65 65 65 67 64 66 67 72 76 76 75 76 79 80 83 85 87 88 88 87 85 85 82 83 82 85 84 84 81 77 77 77 79 83 81 82 82 83 82 83 83 83 83 81 81 81
62 61 62 65 64 66 61 64 64 68 73 71 72 73 75 76 78 81 82 84 85 87 88 85 84 81 80 81 82 83 82 84 79 77 76 75 82 81 83 81 79 82 82 83 82 83 80 81 81
60 56 62 64 62 62 64 58 63 71 69 68 68 70 71 72 75 77 81 82 85 88 89 86 82 81 79 78 81 82 84 83 81 79 75 74 78 78 75 77 79 76 81 80 81 80 80 80 79
56 58 53 58 62 62 59 53 64 67 65 64 66 68 70 71 74 77 80 82 85 87 88 89 86 81 80 80 81 84 84 81 82 79 81 75 76 79 75 74 76 81 75 75 74 73 74 79 78
55 50 52 54 60 59 56 53 62 68 65 63 65 67 69 71 73 75 78 81 84 86 87 88 87 81 80 81 82 82 81 76 81 81 83 78 75 77 76 74 74 76 72 70 72 71 75 75 77
49 49 52 51 57 58 55 54 61 65 64 63 65 66 68 69 71 74 76 81 82 82 83 86 87 82 81 82 82 82 81 78 80 77 78 79 75 75 73 74 73 72 73 70 70 69 69 74 76
50 48 48 54 58 53 52 54 59 64 64 63 65 66 66 67 72 75 75 77 72 73 75 82 84 83 82 81 80 80 79 80 80 82 80 79 74 73 72 75 71 70 71 71 70 68 67 68 73
49 46 48 54 55 53 53 53 59 63 62 59 57 58 58 58 61 64 67 66 66 67 68 71 80 85 83 83 83 84 83 82 82 82 82 81 79 74 72 73 72 71 75 71 70 69 66 67 69
49 46 47 46 52 55 52 50 57 61 59 51 53 54 53 49 50 56 59 62 62 62 63 66 73 81 82 79 83 83 83 82 80 80 81 81 80 79 73 77 77 75 76 72 69 68 66 64 65
43 52 48 46 45 41 53 37 51 52 54 50 46 45 44 44 45 47 50 54 54 55 58 63 70 71 71 72 76 78 79 76 79 79 81 80 78 79 79 78 78 77 72 74 71 70 69 68 63
46 49 47 47 45 45 47 43 50 48 42 41 43 42 41 39 40 42 45 48 49 50 52 55 60 65 68 68 64 68 75 80 81 77 75 72 73 76 79 78 77 74 72 72 70 68 67 73 71
52 47 48 48 45 36 45 43 41 32 31 35 40 40 41 38 38 40 43 45 46 47 48 51 53 55 59 63 60 61 67 75 74 73 72 71 69 69 71 75 73 72 70 69 69 69 69 71 73
47 43 38 34 33 36 48 43 29 35 34 34 34 35 36 39 35 37 39 41 43 43 45 48 49 50 53 55 56 57 59 61 63 63 66 69 68 69 68 69 68 68 69 69 70 70 69 70 71
46 45 38 27 33 37 46 35 30 35 37 36 34 35 36 36 34 34 36 39 41 42 43 45 46 47 49 51 53 54 56 57 58 58 61 61 64 68 69 68 68 68 68 70 72 72 71 71 72
43 39 49 38 41 35 42 31 35 41 36 33 33 33 32 32 32 33 35 36 38 40 41 43 44 44 46 48 51 52 52 55 57 59 62 60 63 64 68 68 67 66 66 68 69 68 67 67 70
48 50 36 39 28 27 36 29 30 32 30 32 30 30 31 32 32 32 33 34 37 40 42 43 44 44 45 45 49 50 51 52 52 54 54 52 56 58 64 67 66 66 66 66 66 66 67 67 66
40 41 43 43 41 31 30 27 32 29 30 30 30 30 30 31 31 31 32 33 35 38 39 41 42 43 43 45 44 45 47 49 48 48 48 48 50 54 60 66 67 66 65 66 66 66 67 66 65
49 44 45 35 34 40 34 27 34 32 32 32 31 31 31 31 31 31 31 32 33 35 37 38 40 41 43 44 43 43 43 44 44 44 45 46 47 49 51 54 66 65 66 68 66 66 66 64 61

GFSSGP_sfc_temp_129.txt.gz
Temp
79 91 97 92 77 79 76 79 89 83 84 89 89 85 84 87 84 79 103 98 96 99 91 83 74 75 75 76 76 76 77 77 77 76 76 76 76 76 76 76 76 78 79 79 79 79 79 79 77
93 92 92 87 73 72 78 86 81 86 87 88 87 87 85 84 95 96 98 99 98 100 93 88 73 74 75 75 75 76 77 77 76 76 76 76 76 76 76 76 76 77 78 79 79 79 78 77 76
87 92 84 80 76 72 77 83 84 86 86 86 85 90 88 87 93 93 98 98 97 99 96 90 73 74 75 75 75 75 76 76 76 76 76 76 76 76 76 75 75 76 78 79 79 78 76 75 74
89 88 85 72 72 81 81 83 84 84 87 87 86 83 91 97 92 96 97 96 95 98 97 75 72 73 74 74 75 75 74 74 74 75 76 76 76 76 76 75 75 76 77 78 78 76 75 73 73
89 85 74 72 74 81 85 86 86 83 84 85 87 82 84 95 97 96 95 94 92 95 95 83 71 72 74 75 75 74 74 74 74 75 75 76 76 76 75 74 75 76 76 77 76 75 73 73 72
80 83 70 70 76 83 84 85 85 82 85 86 85 83 85 97 92 93 93 92 92 92 92 86 74 72 73 74 74 73 73 73 73 74 74 75 75 74 74 74 74 75 75 75 74 73 72 72 72
76 76 71 73 74 78 80 87 83 82 81 82 85 78 88 92 93 94 94 90 89 90 89 84 82 78 71 71 71 71 72 72 73 73 73 73 73 73 74 74 74 74 74 74 73 72 72 71 71
81 78 70 74 73 74 84 82 84 82 79 86 88 80 81 89 93 96 96 92 88 87 87 82 83 83 81 81 70 70 71 71 72 72 72 71 71 72 72 73 73 74 74 73 72 71 71 71 70
83 70 69 73 74 77 83 76 85 87 81 84 86 84 88 91 93 91 91 92 92 87 87 83 82 86 84 84 80 71 71 71 71 72 71 72 82 80 79 77 72 73 72 72 71 71 70 69 69
73 70 72 79 76 74 76 76 77 77 79 79 82 87 88 89 88 86 87 88 89 89 87 89 83 87 86 89 85 82 82 82 82 82 80 82 84 84 85 78 71 70 71 71 71 70 69 69 82
74 67 75 75 75 74 72 73 79 75 72 79 78 80 84 85 84 85 87 89 90 92 92 89 85 88 87 89 89 86 86 84 84 83 83 82 85 82 83 83 80 81 72 80 76 76 80 81 80
64 73 72 73 74 71 69 74 71 73 73 80 81 81 81 82 83 85 86 88 89 91 93 90 90 87 87 90 90 89 89 87 86 85 83 83 84 82 82 82 80 81 82 82 81 83 82 83 84
68 71 72 72 71 71 72 69 70 71 76 80 81 79 79 80 82 84 87 88 89 89 91 92 88 87 87 85 90 88 87 88 88 87 85 85 85 83 83 82 82 81 83 81 80 83 82 82 82
71 68 69 71 71 72 68 69 70 73 78 76 75 75 77 77 78 80 81 82 84 87 89 90 90 84 87 86 86 87 87 87 82 83 86 84 85 85 83 78 79 80 81 80 78 80 77 81 79
67 62 68 71 69 67 71 63 68 74 75 73 73 75 76 76 79 79 80 81 83 86 88 88 88 86 82 85 85 87 88 88 85 83 81 78 83 85 84 84 79 84 83 80 78 78 79 80 79
63 65 59 66 67 69 65 56 70 74 72 70 72 74 74 76 78 80 81 82 84 85 85 87 90 87 84 83 85 86 87 87 87 85 84 76 79 84 83 82 83 80 82 80 80 79 78 79 76
65 58 60 63 71 67 64 58 69 74 71 70 71 73 74 74 77 79 81 82 83 85 84 85 86 87 84 81 83 84 84 86 87 87 86 80 76 81 81 74 78 81 81 79 79 79 79 78 80
56 56 59 58 66 65 62 61 67 71 71 69 70 71 71 70 71 72 73 76 80 80 81 79 80 81 86 85 80 85 86 85 86 87 85 85 79 76 81 77 75 76 81 77 73 72 73 77 79
57 55 55 61 66 60 58 60 64 69 69 64 64 63 62 63 64 66 67 69 71 73 72 73 74 75 82 83 75 81 81 83 82 85 84 85 83 76 75 77 75 73 74 73 72 70 70 73 76
55 53 54 61 63 60 59 58 64 68 62 61 59 58 58 57 56 58 59 61 64 67 69 69 71 72 76 83 83 81 84 84 84 84 83 83 82 79 76 75 79 72 71 72 70 69 68 72 72
56 53 53 53 58 61 58 56 61 65 62 60 58 57 55 52 48 49 51 53 55 57 59 62 66 71 74 74 82 81 86 85 83 83 84 83 83 80 75 73 79 73 74 76 70 69 70 68 68
49 57 54 52 51 47 59 43 55 57 56 52 51 51 48 46 46 45 44 45 47 51 52 54 58 64 70 68 64 75 78 82 84 83 85 85 83 82 78 76 78 77 75 76 75 71 70 70 65
51 56 53 52 50 51 54 49 49 51 43 44 44 45 43 43 44 42 41 41 45 47 47 48 53 58 62 59 61 71 72 83 83 80 78 80 81 81 81 75 78 78 80 76 78 70 69 70 72
57 53 54 54 52 42 52 49 44 35 33 38 40 42 41 40 41 43 42 40 41 44 44 46 49 52 58 56 56 64 71 68 65 65 69 72 71 73 74 77 76 78 78 75 76 74 68 71 71
54 50 41 39 40 40 55 49 34 38 39 38 36 38 39 40 38 39 38 35 37 39 42 45 46 47 51 53 53 55 59 61 62 59 60 67 69 70 72 72 71 71 75 74 74 72 71 69 71
52 50 41 32 37 42 53 42 33 43 42 42 38 40 39 37 37 36 37 34 35 36 40 42 45 45 47 51 51 52 55 57 58 58 59 60 62 64 70 71 72 69 68 68 70 71 70 70 70
48 44 54 42 45 39 44 33 42 47 41 35 35 37 33 33 34 35 36 33 34 35 37 40 43 44 45 47 49 50 51 52 53 54 55 57 59 60 63 66 68 69 67 66 67 67 70 69 69
53 55 40 42 31 31 42 34 35 34 32 33 31 31 32 33 32 33 34 32 34 34 36 39 42 43 45 46 47 47 47 49 50 51 50 52 55 56 59 62 67 71 70 67 66 65 67 68 68
47 45 44 48 44 33 33 31 35 30 32 31 31 31 31 31 31 32 33 32 33 33 35 36 39 42 44 45 45 45 45 47 48 47 47 48 49 50 51 53 53 67 69 69 66 64 65 64 66
52 47 45 38 38 42 37 29 37 33 35 35 33 33 32 32 32 31 32 32 32 33 33 35 38 40 42 43 43 42 44 45 45 45 44 45 45 46 46 46 47 47 46 45 48 60 64 63 64

GFSSGP_sfc_temp_132.txt.gz
Temp
74 86 89 87 71 73 70 77 88 83 83 87 89 84 81 85 81 73 95 96 95 88 83 79 74 75 75 76 76 76 76 76 76 76 76 76 76 76 76 76 77 77 78 79 79 79 79 78 77
79 87 90 81 68 65 71 84 81 82 84 88 87 87 84 82 91 92 89 95 97 92 84 82 73 75 75 75 75 76 77 77 76 76 76 76 76 76 76 76 76 77 78 79 79 79 78 77 76
79 90 79 75 70 65 71 82 82 84 88 87 84 90 87 85 89 90 93 94 95 95 87 82 73 74 74 75 75 76 76 76 75 75 76 76 76 76 76 75 75 77 78 78 79 78 76 75 74
86 85 81 68 67 76 79 83 85 84 87 88 87 81 90 93 91 91 94 94 93 96 91 72 72 73 74 75 75 75 75 75 75 75 76 76 76 76 75 75 75 76 77 78 78 76 75 73 73
87 80 69 68 70 78 84 88 87 82 84 85 86 80 84 90 94 93 91 91 89 86 80 77 71 73 74 75 75 74 74 74 74 75 75 75 76 76 75 74 75 75 76 77 76 75 73 73 72
75 79 65 64 71 80 86 86 84 83 84 85 84 83 85 92 90 91 90 88 89 84 82 77 73 73 73 74 74 73 73 73 73 74 74 75 75 74 74 74 74 75 75 74 74 73 73 72 72
72 71 66 69 71 75 82 87 82 81 81 81 84 77 85 87 91 91 91 87 87 87 82 78 77 75 71 71 71 71 72 72 73 73 73 73 73 73 74 74 74 74 74 74 73 72 72 71 71
78 73 66 69 68 71 84 83 84 81 79 87 88 76 77 86 91 91 90 87 84 86 84 78 78 77 76 75 70 70 71 71 71 72 72 72 72 72 73 73 73 74 74 73 72 71 71 71 70
80 64 62 68 71 71 80 76 84 85 80 83 85 84 87 90 91 87 84 85 85 84 81 77 77 79 78 78 75 70 71 71 71 72 71 70 75 74 74 73 72 73 73 72 71 71 70 69 69
70 63 65 76 74 71 74 74 76 75 76 77 80 86 86 87 85 82 81 80 81 82 84 81 78 77 79 83 78 75 76 75 75 75 73 75 76 76 78 75 71 72 71 71 71 70 69 68 71
72 63 71 74 75 74 71 71 75 70 68 75 73 77 81 82 81 80 82 83 83 84 84 84 80 79 79 82 80 78 78 76 76 76 75 75 77 76 76 75 73 72 70 72 70 69 71 72 73
66 71 72 73 74 72 68 71 68 70 70 77 78 79 79 78 78 79 79 80 80 82 83 85 81 79 77 80 83 80 79 77 77 77 77 75 76 75 75 75 75 74 73 73 72 72 72 73 75
68 70 73 75 73 72 73 69 69 70 75 79 79 78 76 76 76 78 79 79 79 79 80 79 83 79 80 80 82 82 79 79 78 78 78 77 76 75 76 76 75 75 75 74 73 74 74 73 74
71 70 69 71 71 72 69 69 69 71 77 76 75 74 76 76 77 77 77 76 76 78 78 78 78 80 80 77 80 78 79 79 79 79 78 78 77 76 76 75 75 75 75 75 73 74 73 73 75
69 62 66 69 71 68 71 62 66 74 75 72 73 74 75 76 77 76 76 75 77 79 80 75 75 77 79 78 77 81 74 80 79 78 78 78 78 77 77 75 75 75 75 74 73 73 71 71 72
61 62 55 67 69 70 68 55 69 74 73 70 71 73 74 75 75 69 69 70 71 71 74 76 79 76 76 79 76 79 81 79 80 78 77 76 77 78 76 75 75 75 74 74 73 71 70 70 69
63 54 59 64 72 70 66 58 69 74 71 69 70 66 66 66 67 65 65 65 66 67 68 70 70 70 71 69 76 77 76 79 80 78 78 77 75 76 75 75 75 75 74 73 72 71 70 69 69
54 55 58 57 66 66 62 60 67 70 70 66 63 62 61 60 60 62 61 61 62 62 63 63 66 69 68 69 68 74 74 77 80 79 79 77 75 75 75 75 73 73 74 72 71 70 70 69 69
58 55 54 60 67 62 59 59 63 68 66 59 59 57 56 56 59 59 57 56 57 57 57 59 60 62 64 66 65 67 70 72 73 79 79 78 75 73 73 74 72 72 71 72 70 68 66 65 68
57 53 54 60 65 61 59 57 63 63 59 56 54 52 52 51 51 53 52 51 51 51 52 53 56 58 59 62 66 65 67 71 74 78 79 78 76 73 74 73 72 72 73 70 69 68 66 67 68
56 54 54 53 58 60 57 55 61 58 56 55 53 51 50 46 46 47 48 47 47 47 48 50 51 53 55 58 62 61 63 68 71 73 77 77 78 74 73 73 73 71 71 71 69 69 68 63 67
50 59 55 53 50 44 59 41 56 57 50 49 47 47 44 44 45 45 45 43 43 44 46 47 49 50 54 56 58 57 57 59 70 73 76 77 77 75 73 72 73 71 71 70 70 69 68 67 65
53 58 54 52 49 48 51 47 48 52 41 41 43 43 42 42 42 42 42 42 42 43 42 44 46 49 52 53 55 54 56 62 69 74 74 76 75 75 74 71 71 71 69 69 70 69 67 68 68
59 54 54 54 50 39 51 50 38 34 34 38 40 41 40 40 40 41 41 41 39 40 39 40 43 48 49 50 53 53 54 59 65 63 68 73 71 73 73 71 70 71 71 69 69 69 68 67 67
55 49 39 38 37 37 56 49 35 38 39 39 36 38 38 38 37 37 37 36 37 36 37 38 39 45 47 47 51 52 53 57 57 59 58 58 59 62 64 69 69 69 71 72 71 69 68 68 67
52 51 39 31 35 39 52 39 30 40 41 41 39 39 37 36 36 35 37 35 35 35 36 36 36 41 45 46 48 50 51 52 52 53 53 53 57 58 58 60 66 68 67 68 68 69 68 67 66
51 45 54 42 44 37 41 34 44 44 39 34 35 35 33 33 34 34 36 35 33 34 34 34 35 35 44 45 46 48 48 48 48 50 51 51 50 54 55 56 56 62 66 66 65 64 65 66 67
53 57 41 43 30 30 41 33 30 33 32 33 31 31 33 33 33 33 33 33 33 33 34 34 34 33 41 43 44 46 45 46 46 46 46 47 47 47 48 50 50 50 53 59 64 64 65 65 66
49 46 47 46 42 31 30 29 35 31 32 30 31 32 32 32 32 32 32 33 32 33 34 33 33 33 36 43 44 44 44 43 44 44 43 44 44 44 44 45 45 46 46 46 48 50 60 63 65
55 49 47 34 36 41 35 28 37 33 34 35 32 33 34 33 32 31 32 32 32 32 33 33 33 35 33 42 43 43 43 44 42 43 42 43 43 43 43 42 42 42 42 43 43 45 47 50 54

GFSSGP_sfc_temp_135.txt.gz
Temp
65 71 70 68 56 52 49 59 66 65 66 72 77 76 70 71 72 61 82 86 81 78 76 76 74 75 75 75 75 75 76 76 76 76 76 76 76 76 76 76 76 77 78 78 78 78 78 77 76
65 74 69 63 51 44 50 64 63 67 74 77 80 79 75 71 81 79 79 86 83 80 76 75 73 74 75 75 75 75 76 76 76 76 76 76 76 76 76 76 76 76 77 78 79 78 77 76 75
70 74 61 55 49 47 50 64 68 74 79 78 74 79 77 73 80 80 81 85 85 80 79 76 73 73 74 74 75 75 75 75 75 75 76 76 76 76 76 75 75 76 77 78 78 77 76 74 74
70 67 64 51 50 59 62 69 71 74 76 80 78 72 79 82 81 81 83 85 81 81 79 72 72 72 74 74 75 75 74 74 74 74 75 76 76 76 75 74 75 76 77 77 77 76 74 73 73
67 62 51 47 54 63 71 73 73 73 74 77 77 72 72 81 84 82 82 83 77 75 74 74 71 72 74 74 75 74 74 73 74 74 74 75 75 75 74 74 74 75 76 76 75 74 73 72 72
60 60 47 45 55 65 71 75 77 75 75 75 74 73 72 79 81 79 80 80 78 75 73 74 73 72 73 73 73 73 72 73 73 73 74 74 74 74 74 74 74 74 75 74 73 73 72 72 72
56 53 48 52 57 62 68 74 72 72 72 73 75 69 70 77 78 78 77 78 78 75 73 73 72 73 72 71 71 71 72 72 72 72 73 73 72 72 73 73 73 74 73 73 72 72 71 71 71
62 57 53 54 56 58 68 72 74 71 70 80 78 67 66 73 77 77 77 74 75 75 73 72 71 71 70 69 70 70 70 71 71 72 72 71 71 72 72 72 73 73 73 72 72 71 71 70 70
63 50 49 55 57 59 70 66 70 71 70 72 76 73 72 77 76 74 72 72 71 76 72 71 72 72 71 70 71 70 71 70 70 71 71 69 71 71 72 71 71 72 72 72 71 70 70 69 69
55 47 54 65 61 62 68 67 67 65 64 67 69 74 75 76 71 69 68 66 68 70 71 71 71 71 73 77 71 69 71 69 70 71 71 70 70 71 73 71 70 71 70 70 70 70 69 68 67
58 55 63 66 65 67 64 62 67 63 58 65 65 68 72 71 69 69 68 67 65 69 70 73 72 72 72 77 72 70 69 69 70 70 70 70 72 71 71 70 70 69 70 69 68 68 68 67 67
57 65 65 66 67 61 58 63 61 57 64 70 68 69 69 69 68 68 68 69 68 68 71 69 73 72 71 72 74 72 72 71 70 70 70 70 70 69 70 70 69 69 69 68 67 67 67 68 69
58 61 66 67 66 62 65 61 62 63 68 70 71 71 67 67 68 68 65 64 63 63 65 67 69 69 71 72 72 72 73 73 73 72 72 71 71 70 71 70 70 70 69 69 67 67 68 68 69
63 63 62 63 62 63 62 59 61 64 67 70 69 65 63 63 59 59 59 59 60 61 62 63 66 68 68 68 75 73 71 73 74 74 74 73 72 70 71 69 70 70 70 70 69 68 67 68 68
63 54 57 60 62 60 62 54 56 66 70 67 67 65 61 61 60 56 57 56 57 58 59 60 61 62 66 66 62 68 72 71 73 75 74 74 73 72 72 71 70 71 70 69 68 67 67 66 68
54 52 45 59 62 62 59 46 62 64 64 60 58 59 59 57 57 56 56 54 54 54 55 56 60 59 61 61 62 63 65 71 72 74 74 75 74 74 70 72 71 71 70 70 69 66 65 67 66
48 41 46 52 61 58 55 48 59 63 63 55 54 53 53 52 52 53 54 52 51 51 52 52 54 54 57 58 60 62 63 66 72 72 73 74 74 74 72 72 72 71 71 69 70 66 65 64 64
43 43 43 43 52 53 48 46 54 60 54 50 49 49 48 47 48 51 51 51 50 49 49 50 51 52 53 54 57 59 61 62 68 70 71 71 74 74 73 70 71 72 70 69 68 67 65 65 65
51 48 45 49 57 53 49 46 52 50 49 45 45 45 43 44 48 49 49 49 48 47 46 47 47 49 50 50 50 53 53 59 62 67 75 72 73 73 72 70 68 72 70 69 68 65 65 64 64
50 46 44 51 58 52 47 45 46 48 46 45 43 41 41 41 43 45 46 45 45 44 44 45 45 46 47 49 50 51 53 57 60 63 67 71 73 73 73 72 69 69 69 67 67 67 63 63 64
49 46 46 46 50 49 46 43 42 47 47 46 44 42 41 39 39 40 42 41 41 42 43 42 42 45 46 48 51 51 53 56 58 61 66 72 74 72 72 72 71 69 69 67 68 68 67 63 62
44 54 52 49 43 34 47 28 41 42 40 41 40 38 36 37 38 39 39 38 38 40 41 39 41 44 47 50 48 48 48 51 55 59 63 67 74 72 72 72 71 72 69 69 67 69 70 67 62
50 54 50 48 41 38 41 34 36 41 35 36 36 39 37 36 36 36 37 37 40 40 38 39 40 42 44 48 48 47 48 53 55 58 61 65 69 73 71 71 71 69 70 69 70 69 69 68 66
57 50 48 46 40 27 41 39 29 29 33 36 38 39 37 36 36 36 39 38 37 38 38 37 38 39 42 44 47 46 48 50 53 57 61 62 64 70 71 70 70 68 68 67 68 69 68 67 66
50 40 26 25 24 27 47 37 29 35 36 36 34 35 35 36 34 34 34 33 35 35 36 36 37 37 39 40 46 47 48 49 54 56 58 58 58 57 56 62 61 63 67 68 68 66 67 67 65
46 43 29 24 25 29 44 29 29 35 37 39 37 36 35 34 34 34 34 33 33 34 34 35 35 36 37 38 43 46 46 47 51 51 50 52 55 53 52 51 56 54 55 65 67 66 67 67 65
46 41 49 37 37 28 30 32 36 38 36 34 34 34 32 32 32 32 32 32 32 33 34 34 34 34 35 37 42 45 45 46 46 47 47 46 47 50 49 47 47 50 49 50 59 64 63 64 64
50 52 34 35 26 23 26 27 24 31 31 32 30 29 31 32 29 30 31 31 32 33 34 35 34 33 34 35 40 41 44 45 45 44 42 43 43 44 44 44 44 45 46 46 49 51 52 58 61
43 42 42 41 34 22 15 23 34 26 32 29 30 31 30 31 29 29 30 31 32 33 33 33 33 33 33 34 36 38 41 42 43 42 41 41 41 41 41 41 41 42 43 46 47 48 49 51 52
52 46 44 28 31 33 26 23 35 31 34 33 32 32 32 32 30 28 30 31 32 32 32 32 32 33 32 33 35 36 41 40 40 40 40 41 40 40 40 39 39 39 40 43 44 44 45 44 44

GFSSGP_sfc_temp_138.txt.gz
Temp
63 65 65 66 55 49 45 54 61 60 62 68 75 72 67 67 67 57 79 81 78 75 75 75 74 75 75 75 75 75 75 76 76 75 75 75 76 76 76 76 76 77 78 78 78 78 78 77 75
63 72 66 58 48 42 48 57 57 64 72 74 75 73 71 67 76 76 76 81 79 76 74 74 73 74 74 74 74 75 76 76 76 75 75 75 76 75 75 75 75 76 77 78 78 78 77 75 74
68 70 60 52 44 43 48 59 64 71 74 74 71 73 71 68 77 76 79 81 79 75 75 75 73 73 74 74 74 74 75 75 75 75 76 76 76 76 75 75 75 76 77 78 78 77 75 74 73
66 63 59 50 47 53 57 64 70 71 72 74 73 66 74 77 77 79 80 80 77 76 75 71 71 72 74 74 74 74 74 74 74 74 75 76 76 75 75 74 74 75 76 77 77 75 74 72 72
62 56 48 45 49 56 65 67 70 66 69 71 72 66 69 76 79 78 76 78 74 72 73 72 70 72 74 74 74 74 73 73 73 74 74 75 75 75 74 74 74 75 75 75 75 74 72 72 72
57 55 44 43 51 61 63 66 70 69 69 71 70 69 68 73 75 75 76 74 74 72 72 72 72 71 72 73 73 72 72 72 72 73 74 74 74 74 74 73 73 74 74 74 73 72 72 71 71
53 49 43 45 52 57 63 68 65 66 67 70 72 63 66 72 71 72 72 73 73 72 71 70 71 72 71 70 70 70 71 71 72 72 72 72 72 72 73 73 73 73 73 73 72 71 71 71 71
57 52 43 46 52 53 65 68 68 65 66 73 72 61 59 68 72 72 70 70 71 73 71 69 69 70 70 70 69 69 70 70 70 71 70 70 70 71 72 71 72 72 72 72 72 71 70 70 70
58 47 42 47 52 55 66 64 66 66 65 68 71 66 67 72 70 70 66 66 65 68 68 71 69 69 69 69 70 69 70 70 69 70 70 69 71 71 71 71 70 71 71 71 71 70 69 68 68
53 44 49 58 57 57 65 65 63 62 63 65 68 70 69 69 67 65 63 60 60 62 65 64 66 70 70 74 70 69 70 69 70 70 71 72 70 70 72 70 69 70 70 70 70 69 68 67 66
52 51 58 59 59 63 61 62 64 59 57 62 64 65 68 64 59 58 58 58 58 60 61 62 64 61 62 68 70 67 68 69 69 70 72 71 70 69 70 69 69 69 69 68 68 67 66 66 66
52 60 61 58 58 59 58 59 60 59 61 66 61 65 57 56 55 55 55 56 56 58 58 59 60 59 59 61 62 68 69 68 69 70 70 70 69 68 68 68 68 68 69 67 66 66 66 66 66
54 60 62 63 61 58 62 59 59 58 64 67 64 57 55 55 54 55 55 54 54 53 54 56 57 57 59 60 60 59 62 68 68 70 70 70 69 68 68 68 68 69 70 67 66 65 66 65 66
57 57 58 60 59 58 57 58 58 61 65 65 58 54 53 52 52 52 51 50 50 52 51 52 54 55 57 57 57 57 59 62 68 69 71 71 71 70 69 68 68 68 69 69 67 66 65 65 65
58 52 56 59 59 57 59 52 55 64 64 58 57 55 52 51 51 49 50 48 48 48 50 49 52 53 52 54 55 56 58 60 61 69 70 71 71 71 71 69 69 69 69 68 67 66 65 65 65
49 48 42 56 57 59 58 46 59 59 55 50 51 51 49 49 48 49 49 49 48 47 47 48 51 49 50 50 52 56 56 57 61 64 70 71 72 72 71 70 70 70 69 68 67 66 65 65 65
43 37 42 49 55 54 53 47 53 54 51 47 45 44 45 45 46 47 47 47 47 46 46 46 47 46 47 48 50 52 53 55 57 61 62 68 72 73 71 72 71 70 69 68 68 67 67 64 64
38 39 35 40 48 51 46 45 44 48 46 43 41 41 41 41 42 45 45 46 45 44 45 45 46 45 45 46 48 50 51 52 54 57 62 63 67 72 70 72 71 70 70 68 68 67 65 65 65
46 43 42 42 53 47 46 39 39 43 42 39 38 38 38 39 42 44 44 43 42 42 42 42 42 42 42 43 43 45 46 49 52 55 60 62 64 66 70 70 70 70 70 69 68 67 64 63 63
48 43 41 46 52 48 43 35 39 41 39 38 37 36 36 37 38 40 41 40 39 39 40 40 40 41 42 43 45 48 49 50 52 54 57 62 63 66 68 69 69 70 69 69 67 67 65 65 64
46 43 43 44 47 45 44 34 37 41 41 40 38 37 36 35 35 36 38 38 38 37 38 40 40 41 42 45 46 48 49 49 49 52 55 60 62 63 67 68 70 69 70 68 67 68 67 64 61
42 51 49 47 41 34 45 27 34 37 36 36 37 34 34 36 36 35 35 35 35 36 39 40 40 40 42 42 43 44 44 45 48 51 54 56 60 63 65 67 70 70 70 69 69 69 68 67 63
47 52 48 46 39 35 38 32 30 38 34 33 34 35 34 37 34 33 34 35 35 36 38 39 39 40 41 42 41 41 44 47 50 52 52 54 57 62 65 67 69 69 69 70 70 68 68 67 66
53 48 46 42 38 27 39 37 29 27 30 32 35 36 36 36 36 36 35 35 35 36 37 38 38 38 40 40 39 42 44 46 47 48 50 53 56 61 61 61 60 65 67 68 67 68 69 67 67
49 41 26 25 23 27 45 36 28 32 33 33 33 34 35 35 34 32 30 31 34 34 35 36 36 35 38 37 38 42 45 45 46 48 51 54 57 54 54 56 58 57 56 65 67 66 66 65 66
43 41 29 25 25 29 41 30 26 34 36 38 36 35 35 31 30 29 30 31 33 34 34 34 34 35 36 36 36 40 43 45 45 46 47 48 52 50 51 52 55 54 54 55 57 63 63 63 63
43 36 48 35 35 27 29 29 34 35 34 34 33 34 32 26 28 28 30 30 32 33 33 33 33 34 35 36 36 38 39 40 43 44 45 45 47 47 46 47 48 50 52 51 53 54 54 59 64
49 52 34 34 27 23 26 26 22 30 30 32 30 29 31 30 25 28 29 30 32 32 34 34 33 32 34 36 35 37 37 38 40 41 40 42 42 43 43 43 44 46 47 48 50 51 51 50 49
44 39 40 40 33 25 18 23 33 30 28 26 29 31 30 30 23 25 27 29 32 32 33 32 32 32 32 34 34 35 35 36 37 38 38 39 41 40 40 41 42 43 42 44 44 45 45 45 45
49 43 42 31 32 31 24 23 33 29 30 31 31 32 32 31 25 26 25 28 29 31 31 32 32 32 32 32 33 33 33 33 34 34 36 38 37 38 38 39 39 40 40 40 39 40 41 41 42